Wetterdaten: Dienstag, 29.10.2013
Datum Zeit Temp. Aussen +5cm Feuchte Auss Luftdruck Regen Sonnenschein Regendauer UV Solar Windben
29.10.2013 00:00 11,4 C 10,0 C 80 % 1005,8 hPa 0,0 l/m 0 min 0 min 0,0 UV-I 0 W/m 28,3 km/h (4 Bft)
29.10.2013 00:02 11,4 C 10,0 C 80 % 1005,7 hPa 0,0 l/m 0 min 0 min 0,0 UV-I 0 W/m 12,9 km/h (3 Bft)
29.10.2013 00:06 11,4 C 10,0 C 80 % 1005,8 hPa 0,0 l/m 0 min 0 min 0,0 UV-I 0 W/m 12,9 km/h (3 Bft)
29.10.2013 00:08 11,4 C 10,0 C 80 % 1005,9 hPa 0,0 l/m 0 min 0 min 0,0 UV-I 0 W/m 12,9 km/h (3 Bft)
29.10.2013 00:10 11,4 C 10,0 C 80 % 1006,0 hPa 0,0 l/m 0 min 0 min 0,0 UV-I 0 W/m 12,9 km/h (3 Bft)
29.10.2013 00:12 11,4 C 10,0 C 80 % 1006,0 hPa 0,0 l/m 0 min 0 min 0,0 UV-I 0 W/m 10,3 km/h (2 Bft)
29.10.2013 00:14 11,4 C 10,0 C 80 % 1006,0 hPa 0,0 l/m 0 min 0 min 0,0 UV-I 0 W/m 10,3 km/h (2 Bft)
29.10.2013 00:16 11,4 C 10,0 C 80 % 1006,0 hPa 0,0 l/m 0 min 0 min 0,0 UV-I 0 W/m 10,3 km/h (2 Bft)
29.10.2013 00:18 11,4 C 10,0 C 80 % 1005,9 hPa 0,0 l/m 0 min 0 min 0,0 UV-I 0 W/m 7,7 km/h (2 Bft)
29.10.2013 00:20 11,4 C 10,0 C 80 % 1006,1 hPa 0,0 l/m 0 min 0 min 0,0 UV-I 0 W/m 20,6 km/h (4 Bft)
29.10.2013 00:22 11,4 C 10,0 C 80 % 1006,1 hPa 0,0 l/m 0 min 0 min 0,0 UV-I 0 W/m 18,0 km/h (3 Bft)
29.10.2013 00:24 11,4 C 10,0 C 80 % 1006,1 hPa 0,0 l/m 0 min 0 min 0,0 UV-I 0 W/m 15,4 km/h (3 Bft)
29.10.2013 00:26 11,4 C 10,0 C 80 % 1006,1 hPa 0,0 l/m 0 min 0 min 0,0 UV-I 0 W/m 20,6 km/h (4 Bft)
29.10.2013 00:28 11,4 C 10,0 C 80 % 1006,1 hPa 0,0 l/m 0 min 0 min 0,0 UV-I 0 W/m 7,7 km/h (2 Bft)
29.10.2013 00:30 11,3 C 10,0 C 80 % 1006,1 hPa 0,0 l/m 0 min 0 min 0,0 UV-I 0 W/m 10,3 km/h (2 Bft)
29.10.2013 00:32 11,3 C 9,4 C 80 % 1006,1 hPa 0,0 l/m 0 min 0 min 0,0 UV-I 0 W/m 5,1 km/h (1 Bft)
29.10.2013 00:34 11,3 C 9,4 C 80 % 1006,1 hPa 0,0 l/m 0 min 0 min 0,0 UV-I 0 W/m 12,9 km/h (3 Bft)
29.10.2013 00:36 11,3 C 10,0 C 80 % 1006,2 hPa 0,0 l/m 0 min 0 min 0,0 UV-I 0 W/m 25,7 km/h (4 Bft)
29.10.2013 00:38 11,2 C 9,4 C 80 % 1006,2 hPa 0,0 l/m 0 min 0 min 0,0 UV-I 0 W/m 2,6 km/h (1 Bft)
29.10.2013 00:40 11,2 C 9,4 C 80 % 1006,2 hPa 0,0 l/m 0 min 0 min 0,0 UV-I 0 W/m 12,9 km/h (3 Bft)
29.10.2013 00:42 11,2 C 9,4 C 80 % 1006,2 hPa 0,0 l/m 0 min 0 min 0,0 UV-I 0 W/m 12,9 km/h (3 Bft)
29.10.2013 00:44 11,2 C 9,4 C 80 % 1006,2 hPa 0,0 l/m 0 min 0 min 0,0 UV-I 0 W/m 15,4 km/h (3 Bft)
29.10.2013 00:46 11,2 C 9,4 C 80 % 1006,3 hPa 0,0 l/m 0 min 0 min 0,0 UV-I 0 W/m 20,6 km/h (4 Bft)
29.10.2013 00:48 11,2 C 10,0 C 80 % 1006,2 hPa 0,0 l/m 0 min 0 min 0,0 UV-I 0 W/m 12,9 km/h (3 Bft)
29.10.2013 00:50 11,2 C 10,0 C 80 % 1006,3 hPa 0,0 l/m 0 min 0 min 0,0 UV-I 0 W/m 18,0 km/h (3 Bft)
29.10.2013 00:52 11,3 C 10,0 C 80 % 1006,4 hPa 0,0 l/m 0 min 0 min 0,0 UV-I 0 W/m 12,9 km/h (3 Bft)
29.10.2013 00:54 11,3 C 10,0 C 80 % 1006,3 hPa 0,0 l/m 0 min 0 min 0,0 UV-I 0 W/m 18,0 km/h (3 Bft)
29.10.2013 00:56 11,2 C 9,4 C 80 % 1006,3 hPa 0,0 l/m 0 min 0 min 0,0 UV-I 0 W/m 5,1 km/h (1 Bft)
29.10.2013 00:58 11,2 C 9,4 C 80 % 1006,3 hPa 0,0 l/m 0 min 0 min 0,0 UV-I 0 W/m 18,0 km/h (3 Bft)
29.10.2013 01:00 11,2 C 9,4 C 80 % 1006,3 hPa 0,0 l/m 0 min 0 min 0,0 UV-I 0 W/m 18,0 km/h (3 Bft)
29.10.2013 01:02 11,2 C 9,4 C 80 % 1006,2 hPa 0,0 l/m 0 min 0 min 0,0 UV-I 0 W/m 28,3 km/h (4 Bft)
29.10.2013 01:06 11,2 C 9,4 C 80 % 1006,3 hPa 0,0 l/m 0 min 0 min 0,0 UV-I 0 W/m 18,0 km/h (3 Bft)
29.10.2013 01:08 11,2 C 9,4 C 80 % 1006,3 hPa 0,0 l/m 0 min 0 min 0,0 UV-I 0 W/m 10,3 km/h (2 Bft)
29.10.2013 01:10 11,2 C 9,4 C 80 % 1006,3 hPa 0,0 l/m 0 min 0 min 0,0 UV-I 0 W/m 12,9 km/h (3 Bft)
29.10.2013 01:12 11,2 C 9,4 C 80 % 1006,3 hPa 0,0 l/m 0 min 0 min 0,0 UV-I 0 W/m 15,4 km/h (3 Bft)
29.10.2013 01:14 11,2 C 9,4 C 80 % 1006,4 hPa 0,0 l/m 0 min 0 min 0,0 UV-I 0 W/m 7,7 km/h (2 Bft)
29.10.2013 01:16 11,2 C 9,4 C 79 % 1006,1 hPa 0,0 l/m 0 min 0 min 0,0 UV-I 0 W/m 20,6 km/h (4 Bft)
29.10.2013 01:18 11,2 C 9,4 C 79 % 1006,2 hPa 0,0 l/m 0 min 0 min 0,0 UV-I 0 W/m 7,7 km/h (2 Bft)
29.10.2013 01:20 11,1 C 9,4 C 79 % 1006,1 hPa 0,0 l/m 0 min 0 min 0,0 UV-I 0 W/m 20,6 km/h (4 Bft)
29.10.2013 01:22 11,1 C 9,4 C 79 % 1006,1 hPa 0,0 l/m 0 min 0 min 0,0 UV-I 0 W/m 12,9 km/h (3 Bft)
29.10.2013 01:24 11,1 C 9,4 C 79 % 1006,2 hPa 0,0 l/m 0 min 0 min 0,0 UV-I 0 W/m 23,2 km/h (4 Bft)
29.10.2013 01:26 11,1 C 9,4 C 79 % 1006,1 hPa 0,0 l/m 0 min 0 min 0,0 UV-I 0 W/m 10,3 km/h (2 Bft)
29.10.2013 01:28 11,1 C 9,4 C 79 % 1006,1 hPa 0,0 l/m 0 min 0 min 0,0 UV-I 0 W/m 12,9 km/h (3 Bft)
29.10.2013 01:30 11,1 C 9,4 C 79 % 1006,2 hPa 0,0 l/m 0 min 0 min 0,0 UV-I 0 W/m 10,3 km/h (2 Bft)
29.10.2013 01:32 11,1 C 9,4 C 79 % 1006,2 hPa 0,0 l/m 0 min 0 min 0,0 UV-I 0 W/m 20,6 km/h (4 Bft)
29.10.2013 01:34 11,1 C 9,4 C 79 % 1006,2 hPa 0,0 l/m 0 min 0 min 0,0 UV-I 0 W/m 20,6 km/h (4 Bft)
29.10.2013 01:36 11,1 C 9,4 C 79 % 1006,1 hPa 0,0 l/m 0 min 0 min 0,0 UV-I 0 W/m 18,0 km/h (3 Bft)
29.10.2013 01:38 11,1 C 9,4 C 79 % 1006,1 hPa 0,0 l/m 0 min 0 min 0,0 UV-I 0 W/m 36,0 km/h (5 Bft)
29.10.2013 01:40 11,1 C 9,4 C 79 % 1006,1 hPa 0,0 l/m 0 min 0 min 0,0 UV-I 0 W/m 10,3 km/h (2 Bft)
29.10.2013 01:42 11,1 C 9,4 C 79 % 1006,2 hPa 0,0 l/m 0 min 0 min 0,0 UV-I 0 W/m 18,0 km/h (3 Bft)
29.10.2013 01:44 11,1 C 9,4 C 79 % 1006,2 hPa 0,0 l/m 0 min 0 min 0,0 UV-I 0 W/m 12,9 km/h (3 Bft)
29.10.2013 01:46 11,1 C 9,4 C 79 % 1006,1 hPa 0,0 l/m 0 min 0 min 0,0 UV-I 0 W/m 18,0 km/h (3 Bft)
29.10.2013 01:48 11,1 C 9,4 C 79 % 1006,1 hPa 0,0 l/m 0 min 0 min 0,0 UV-I 0 W/m 15,4 km/h (3 Bft)
29.10.2013 01:50 11,0 C 9,4 C 79 % 1006,1 hPa 0,0 l/m 0 min 0 min 0,0 UV-I 0 W/m 10,3 km/h (2 Bft)
29.10.2013 01:52 11,0 C 9,4 C 79 % 1006,3 hPa 0,0 l/m 0 min 0 min 0,0 UV-I 0 W/m 15,4 km/h (3 Bft)
29.10.2013 01:54 11,0 C 9,4 C 79 % 1006,2 hPa 0,0 l/m 0 min 0 min 0,0 UV-I 0 W/m 20,6 km/h (4 Bft)
29.10.2013 01:56 11,0 C 9,4 C 79 % 1006,2 hPa 0,0 l/m 0 min 0 min 0,0 UV-I 0 W/m 15,4 km/h (3 Bft)
29.10.2013 01:58 11,0 C 9,4 C 79 % 1006,1 hPa 0,0 l/m 0 min 0 min 0,0 UV-I 0 W/m 23,2 km/h (4 Bft)
29.10.2013 02:00 10,9 C 9,4 C 79 % 1006,1 hPa 0,0 l/m 0 min 0 min 0,0 UV-I 0 W/m 12,9 km/h (3 Bft)
29.10.2013 02:02 10,9 C 9,4 C 79 % 1006,0 hPa 0,0 l/m 0 min 0 min 0,0 UV-I 0 W/m 10,3 km/h (2 Bft)
29.10.2013 02:06 11,0 C 9,4 C 79 % 1006,2 hPa 0,0 l/m 0 min 0 min 0,0 UV-I 0 W/m 38,6 km/h (5 Bft)
29.10.2013 02:08 11,0 C 9,4 C 79 % 1006,0 hPa 0,0 l/m 0 min 0 min 0,0 UV-I 0 W/m 12,9 km/h (3 Bft)
29.10.2013 02:10 11,0 C 9,4 C 79 % 1006,0 hPa 0,0 l/m 0 min 0 min 0,0 UV-I 0 W/m 15,4 km/h (3 Bft)
29.10.2013 02:12 11,0 C 9,4 C 79 % 1006,1 hPa 0,0 l/m 0 min 0 min 0,0 UV-I 0 W/m 20,6 km/h (4 Bft)
29.10.2013 02:14 11,0 C 9,4 C 79 % 1006,0 hPa 0,0 l/m 0 min 0 min 0,0 UV-I 0 W/m 28,3 km/h (4 Bft)
29.10.2013 02:16 11,0 C 9,4 C 79 % 1006,0 hPa 0,0 l/m 0 min 0 min 0,0 UV-I 0 W/m 28,3 km/h (4 Bft)
29.10.2013 02:18 10,9 C 9,4 C 79 % 1006,0 hPa 0,0 l/m 0 min 0 min 0,0 UV-I 0 W/m 23,2 km/h (4 Bft)
29.10.2013 02:20 10,9 C 9,4 C 79 % 1006,0 hPa 0,0 l/m 0 min 0 min 0,0 UV-I 0 W/m 10,3 km/h (2 Bft)
29.10.2013 02:22 10,9 C 9,4 C 79 % 1006,1 hPa 0,0 l/m 0 min 0 min 0,0 UV-I 0 W/m 10,3 km/h (2 Bft)
29.10.2013 02:24 10,9 C 9,4 C 79 % 1006,2 hPa 0,0 l/m 0 min 0 min 0,0 UV-I 0 W/m 15,4 km/h (3 Bft)
29.10.2013 02:26 10,9 C 9,4 C 79 % 1006,2 hPa 0,0 l/m 0 min 0 min 0,0 UV-I 0 W/m 25,7 km/h (4 Bft)
29.10.2013 02:28 10,9 C 9,4 C 79 % 1006,2 hPa 0,0 l/m 0 min 0 min 0,0 UV-I 0 W/m 20,6 km/h (4 Bft)
29.10.2013 02:30 10,9 C 9,4 C 79 % 1006,1 hPa 0,0 l/m 0 min 0 min 0,0 UV-I 0 W/m 15,4 km/h (3 Bft)
29.10.2013 02:32 10,9 C 9,4 C 79 % 1006,2 hPa 0,0 l/m 0 min 0 min 0,0 UV-I 0 W/m 0,0 km/h (0 Bft)
29.10.2013 02:34 10,8 C 9,4 C 79 % 1006,2 hPa 0,0 l/m 0 min 0 min 0,0 UV-I 0 W/m 15,4 km/h (3 Bft)
29.10.2013 02:36 10,8 C 9,4 C 79 % 1006,1 hPa 0,0 l/m 0 min 0 min 0,0 UV-I 0 W/m 10,3 km/h (2 Bft)
29.10.2013 02:38 10,8 C 9,4 C 80 % 1006,1 hPa 0,0 l/m 0 min 0 min 0,0 UV-I 0 W/m 18,0 km/h (3 Bft)
29.10.2013 02:40 10,8 C 9,4 C 80 % 1006,2 hPa 0,0 l/m 0 min 0 min 0,0 UV-I 0 W/m 20,6 km/h (4 Bft)
29.10.2013 02:42 10,8 C 9,4 C 80 % 1006,1 hPa 0,0 l/m 0 min 0 min 0,0 UV-I 0 W/m 18,0 km/h (3 Bft)
29.10.2013 02:44 10,8 C 9,4 C 80 % 1006,2 hPa 0,0 l/m 0 min 0 min 0,0 UV-I 0 W/m 18,0 km/h (3 Bft)
29.10.2013 02:46 10,8 C 9,4 C 80 % 1006,2 hPa 0,0 l/m 0 min 0 min 0,0 UV-I 0 W/m 15,4 km/h (3 Bft)
29.10.2013 02:48 10,8 C 9,4 C 80 % 1006,2 hPa 0,0 l/m 0 min 0 min 0,0 UV-I 0 W/m 28,3 km/h (4 Bft)
29.10.2013 02:50 10,8 C 9,4 C 80 % 1006,3 hPa 0,0 l/m 0 min 0 min 0,0 UV-I 0 W/m 10,3 km/h (2 Bft)
29.10.2013 02:52 10,8 C 9,4 C 80 % 1006,3 hPa 0,0 l/m 0 min 0 min 0,0 UV-I 0 W/m 7,7 km/h (2 Bft)
29.10.2013 02:54 10,7 C 9,4 C 80 % 1006,3 hPa 0,0 l/m 0 min 0 min 0,0 UV-I 0 W/m 18,0 km/h (3 Bft)
29.10.2013 02:56 10,7 C 9,4 C 80 % 1006,2 hPa 0,0 l/m 0 min 0 min 0,0 UV-I 0 W/m 25,7 km/h (4 Bft)
29.10.2013 02:58 10,7 C 8,9 C 80 % 1006,2 hPa 0,0 l/m 0 min 0 min 0,0 UV-I 0 W/m 15,4 km/h (3 Bft)
29.10.2013 03:00 10,7 C 8,9 C 80 % 1006,3 hPa 0,0 l/m 0 min 0 min 0,0 UV-I 0 W/m 12,9 km/h (3 Bft)
29.10.2013 03:02 10,6 C 8,9 C 80 % 1006,2 hPa 0,0 l/m 0 min 0 min 0,0 UV-I 0 W/m 12,9 km/h (3 Bft)
29.10.2013 03:06 10,6 C 8,9 C 80 % 1006,2 hPa 0,0 l/m 0 min 0 min 0,0 UV-I 0 W/m 28,3 km/h (4 Bft)
29.10.2013 03:08 10,6 C 8,9 C 80 % 1006,2 hPa 0,0 l/m 0 min 0 min 0,0 UV-I 0 W/m 15,4 km/h (3 Bft)
29.10.2013 03:10 10,6 C 8,9 C 80 % 1006,3 hPa 0,0 l/m 0 min 0 min 0,0 UV-I 0 W/m 12,9 km/h (3 Bft)
29.10.2013 03:12 10,6 C 8,9 C 80 % 1006,3 hPa 0,0 l/m 0 min 0 min 0,0 UV-I 0 W/m 20,6 km/h (4 Bft)
29.10.2013 03:14 10,6 C 8,9 C 80 % 1006,3 hPa 0,0 l/m 0 min 0 min 0,0 UV-I 0 W/m 23,2 km/h (4 Bft)
29.10.2013 03:16 10,6 C 8,9 C 80 % 1006,3 hPa 0,0 l/m 0 min 0 min 0,0 UV-I 0 W/m 15,4 km/h (3 Bft)
29.10.2013 03:18 10,5 C 8,9 C 80 % 1006,3 hPa 0,0 l/m 0 min 0 min 0,0 UV-I 0 W/m 12,9 km/h (3 Bft)
29.10.2013 03:20 10,5 C 8,9 C 80 % 1006,3 hPa 0,0 l/m 0 min 0 min 0,0 UV-I 0 W/m 15,4 km/h (3 Bft)
29.10.2013 03:22 10,5 C 8,9 C 80 % 1006,3 hPa 0,0 l/m 0 min 0 min 0,0 UV-I 0 W/m 7,7 km/h (2 Bft)
29.10.2013 03:24 10,4 C 8,9 C 80 % 1006,3 hPa 0,0 l/m 0 min 0 min 0,0 UV-I 0 W/m 18,0 km/h (3 Bft)
29.10.2013 03:26 10,5 C 8,9 C 80 % 1006,4 hPa 0,0 l/m 0 min 0 min 0,0 UV-I 0 W/m 12,9 km/h (3 Bft)
29.10.2013 03:28 10,4 C 8,9 C 80 % 1006,4 hPa 0,0 l/m 0 min 0 min 0,0 UV-I 0 W/m 15,4 km/h (3 Bft)
29.10.2013 03:30 10,4 C 8,9 C 80 % 1006,4 hPa 0,0 l/m 0 min 0 min 0,0 UV-I 0 W/m 33,5 km/h (5 Bft)
29.10.2013 03:32 10,4 C 8,9 C 80 % 1006,5 hPa 0,0 l/m 0 min 0 min 0,0 UV-I 0 W/m 12,9 km/h (3 Bft)
29.10.2013 03:34 10,4 C 8,9 C 80 % 1006,4 hPa 0,0 l/m 0 min 0 min 0,0 UV-I 0 W/m 12,9 km/h (3 Bft)
29.10.2013 03:36 10,4 C 8,9 C 80 % 1006,5 hPa 0,0 l/m 0 min 0 min 0,0 UV-I 0 W/m 7,7 km/h (2 Bft)
29.10.2013 03:38 10,4 C 8,9 C 80 % 1006,6 hPa 0,0 l/m 0 min 0 min 0,0 UV-I 0 W/m 10,3 km/h (2 Bft)
29.10.2013 03:40 10,4 C 8,9 C 80 % 1006,4 hPa 0,0 l/m 0 min 0 min 0,0 UV-I 0 W/m 12,9 km/h (3 Bft)
29.10.2013 03:42 10,4 C 8,9 C 80 % 1006,3 hPa 0,0 l/m 0 min 0 min 0,0 UV-I 0 W/m 5,1 km/h (1 Bft)
29.10.2013 03:44 10,3 C 8,9 C 80 % 1006,4 hPa 0,0 l/m 0 min 0 min 0,0 UV-I 0 W/m 12,9 km/h (3 Bft)
29.10.2013 03:46 10,3 C 8,9 C 80 % 1006,4 hPa 0,0 l/m 0 min 0 min 0,0 UV-I 0 W/m 10,3 km/h (2 Bft)
29.10.2013 03:48 10,3 C 8,9 C 80 % 1006,6 hPa 0,0 l/m 0 min 0 min 0,0 UV-I 0 W/m 38,6 km/h (5 Bft)
29.10.2013 03:50 10,3 C 8,9 C 80 % 1006,5 hPa 0,0 l/m 0 min 0 min 0,0 UV-I 0 W/m 28,3 km/h (4 Bft)
29.10.2013 03:52 10,4 C 8,9 C 80 % 1006,5 hPa 0,0 l/m 0 min 0 min 0,0 UV-I 0 W/m 23,2 km/h (4 Bft)
29.10.2013 03:54 10,4 C 8,9 C 80 % 1006,4 hPa 0,0 l/m 0 min 0 min 0,0 UV-I 0 W/m 18,0 km/h (3 Bft)
29.10.2013 03:56 10,4 C 8,9 C 80 % 1006,3 hPa 0,0 l/m 0 min 0 min 0,0 UV-I 0 W/m 30,9 km/h (5 Bft)
29.10.2013 03:58 10,4 C 8,9 C 80 % 1006,3 hPa 0,0 l/m 0 min 0 min 0,0 UV-I 0 W/m 18,0 km/h (3 Bft)
29.10.2013 04:00 10,4 C 8,9 C 80 % 1006,4 hPa 0,0 l/m 0 min 0 min 0,0 UV-I 0 W/m 10,3 km/h (2 Bft)
29.10.2013 04:02 10,4 C 8,9 C 80 % 1006,5 hPa 0,0 l/m 0 min 0 min 0,0 UV-I 0 W/m 20,6 km/h (4 Bft)
29.10.2013 04:06 10,4 C 8,9 C 80 % 1006,5 hPa 0,0 l/m 0 min 0 min 0,0 UV-I 0 W/m 15,4 km/h (3 Bft)
29.10.2013 04:08 10,4 C 8,9 C 80 % 1006,6 hPa 0,0 l/m 0 min 0 min 0,0 UV-I 0 W/m 10,3 km/h (2 Bft)
29.10.2013 04:10 10,4 C 8,9 C 80 % 1006,3 hPa 0,0 l/m 0 min 0 min 0,0 UV-I 0 W/m 10,3 km/h (2 Bft)
29.10.2013 04:12 10,4 C 8,9 C 80 % 1006,5 hPa 0,0 l/m 0 min 0 min 0,0 UV-I 0 W/m 30,9 km/h (5 Bft)
29.10.2013 04:14 10,4 C 8,9 C 80 % 1006,4 hPa 0,0 l/m 0 min 0 min 0,0 UV-I 0 W/m 20,6 km/h (4 Bft)
29.10.2013 04:16 10,4 C 8,9 C 80 % 1006,4 hPa 0,0 l/m 0 min 0 min 0,0 UV-I 0 W/m 28,3 km/h (4 Bft)
29.10.2013 04:18 10,3 C 8,9 C 80 % 1006,6 hPa 0,0 l/m 0 min 0 min 0,0 UV-I 0 W/m 23,2 km/h (4 Bft)
29.10.2013 04:20 10,3 C 8,9 C 80 % 1006,4 hPa 0,0 l/m 0 min 0 min 0,0 UV-I 0 W/m 20,6 km/h (4 Bft)
29.10.2013 04:22 10,3 C 8,9 C 80 % 1006,5 hPa 0,0 l/m 0 min 0 min 0,0 UV-I 0 W/m 15,4 km/h (3 Bft)
29.10.2013 04:24 10,3 C 8,9 C 80 % 1006,5 hPa 0,0 l/m 0 min 0 min 0,0 UV-I 0 W/m 20,6 km/h (4 Bft)
29.10.2013 04:26 10,3 C 8,9 C 80 % 1006,6 hPa 0,0 l/m 0 min 0 min 0,0 UV-I 0 W/m 15,4 km/h (3 Bft)
29.10.2013 04:28 10,3 C 8,9 C 80 % 1006,6 hPa 0,0 l/m 0 min 0 min 0,0 UV-I 0 W/m 12,9 km/h (3 Bft)
29.10.2013 04:30 10,3 C 8,9 C 80 % 1006,6 hPa 0,0 l/m 0 min 0 min 0,0 UV-I 0 W/m 12,9 km/h (3 Bft)
29.10.2013 04:32 10,3 C 8,9 C 80 % 1006,7 hPa 0,0 l/m 0 min 0 min 0,0 UV-I 0 W/m 15,4 km/h (3 Bft)
29.10.2013 04:34 10,3 C 8,9 C 81 % 1006,7 hPa 0,0 l/m 0 min 0 min 0,0 UV-I 0 W/m 18,0 km/h (3 Bft)
29.10.2013 04:36 10,3 C 8,9 C 81 % 1006,6 hPa 0,0 l/m 0 min 0 min 0,0 UV-I 0 W/m 28,3 km/h (4 Bft)
29.10.2013 04:38 10,3 C 8,9 C 81 % 1006,6 hPa 0,0 l/m 0 min 0 min 0,0 UV-I 0 W/m 28,3 km/h (4 Bft)
29.10.2013 04:40 10,3 C 8,9 C 81 % 1006,7 hPa 0,0 l/m 0 min 0 min 0,0 UV-I 0 W/m 15,4 km/h (3 Bft)
29.10.2013 04:42 10,3 C 8,9 C 81 % 1006,7 hPa 0,0 l/m 0 min 0 min 0,0 UV-I 0 W/m 2,6 km/h (1 Bft)
29.10.2013 04:44 10,3 C 8,9 C 81 % 1006,7 hPa 0,0 l/m 0 min 0 min 0,0 UV-I 0 W/m 10,3 km/h (2 Bft)
29.10.2013 04:46 10,2 C 8,9 C 81 % 1006,7 hPa 0,0 l/m 0 min 0 min 0,0 UV-I 0 W/m 18,0 km/h (3 Bft)
29.10.2013 04:48 10,2 C 8,9 C 81 % 1006,8 hPa 0,0 l/m 0 min 0 min 0,0 UV-I 0 W/m 18,0 km/h (3 Bft)
29.10.2013 04:50 10,2 C 8,9 C 81 % 1006,7 hPa 0,0 l/m 0 min 0 min 0,0 UV-I 0 W/m 33,5 km/h (5 Bft)
29.10.2013 04:52 10,2 C 8,9 C 81 % 1006,8 hPa 0,0 l/m 0 min 0 min 0,0 UV-I 0 W/m 10,3 km/h (2 Bft)
29.10.2013 04:54 10,2 C 8,9 C 81 % 1006,7 hPa 0,0 l/m 0 min 0 min 0,0 UV-I 0 W/m 20,6 km/h (4 Bft)
29.10.2013 04:56 10,2 C 8,9 C 81 % 1006,7 hPa 0,0 l/m 0 min 0 min 0,0 UV-I 0 W/m 18,0 km/h (3 Bft)
29.10.2013 04:58 10,2 C 8,9 C 81 % 1006,8 hPa 0,0 l/m 0 min 0 min 0,0 UV-I 0 W/m 10,3 km/h (2 Bft)
29.10.2013 05:00 10,2 C 8,9 C 82 % 1006,8 hPa 0,0 l/m 0 min 0 min 0,0 UV-I 0 W/m 20,6 km/h (4 Bft)
29.10.2013 05:02 10,2 C 8,9 C 82 % 1006,9 hPa 0,0 l/m 0 min 0 min 0,0 UV-I 0 W/m 7,7 km/h (2 Bft)
29.10.2013 05:06 10,2 C 8,9 C 82 % 1006,8 hPa 0,0 l/m 0 min 0 min 0,0 UV-I 0 W/m 12,9 km/h (3 Bft)
29.10.2013 05:08 10,2 C 8,9 C 82 % 1006,8 hPa 0,0 l/m 0 min 0 min 0,0 UV-I 0 W/m 18,0 km/h (3 Bft)
29.10.2013 05:10 10,2 C 8,9 C 82 % 1006,8 hPa 0,0 l/m 0 min 0 min 0,0 UV-I 0 W/m 20,6 km/h (4 Bft)
29.10.2013 05:12 10,1 C 8,9 C 82 % 1006,9 hPa 0,0 l/m 0 min 0 min 0,0 UV-I 0 W/m 12,9 km/h (3 Bft)
29.10.2013 05:14 10,1 C 8,9 C 82 % 1006,9 hPa 0,0 l/m 0 min 0 min 0,0 UV-I 0 W/m 18,0 km/h (3 Bft)
29.10.2013 05:16 10,1 C 8,9 C 82 % 1006,8 hPa 0,0 l/m 0 min 0 min 0,0 UV-I 0 W/m 20,6 km/h (4 Bft)
29.10.2013 05:18 10,1 C 8,9 C 82 % 1006,9 hPa 0,0 l/m 0 min 0 min 0,0 UV-I 0 W/m 18,0 km/h (3 Bft)
29.10.2013 05:20 10,1 C 8,3 C 82 % 1006,9 hPa 0,0 l/m 0 min 0 min 0,0 UV-I 0 W/m 10,3 km/h (2 Bft)
29.10.2013 05:22 10,0 C 8,3 C 83 % 1006,9 hPa 0,0 l/m 0 min 0 min 0,0 UV-I 0 W/m 12,9 km/h (3 Bft)
29.10.2013 05:24 10,0 C 8,3 C 83 % 1006,9 hPa 0,0 l/m 0 min 0 min 0,0 UV-I 0 W/m 12,9 km/h (3 Bft)
29.10.2013 05:26 10,0 C 8,3 C 83 % 1006,9 hPa 0,0 l/m 0 min 0 min 0,0 UV-I 0 W/m 18,0 km/h (3 Bft)
29.10.2013 05:28 10,0 C 8,3 C 83 % 1007,0 hPa 0,0 l/m 0 min 0 min 0,0 UV-I 0 W/m 18,0 km/h (3 Bft)
29.10.2013 05:30 10,0 C 8,9 C 83 % 1006,9 hPa 0,0 l/m 0 min 0 min 0,0 UV-I 0 W/m 18,0 km/h (3 Bft)
29.10.2013 05:32 10,0 C 8,9 C 83 % 1007,1 hPa 0,0 l/m 0 min 0 min 0,0 UV-I 0 W/m 18,0 km/h (3 Bft)
29.10.2013 05:34 10,0 C 8,9 C 83 % 1007,1 hPa 0,0 l/m 0 min 0 min 0,0 UV-I 0 W/m 18,0 km/h (3 Bft)
29.10.2013 05:36 10,0 C 8,3 C 83 % 1007,0 hPa 0,0 l/m 0 min 0 min 0,0 UV-I 0 W/m 12,9 km/h (3 Bft)
29.10.2013 05:38 10,0 C 8,3 C 83 % 1007,0 hPa 0,0 l/m 0 min 0 min 0,0 UV-I 0 W/m 7,7 km/h (2 Bft)
29.10.2013 05:40 9,9 C 8,3 C 83 % 1007,1 hPa 0,0 l/m 0 min 0 min 0,0 UV-I 0 W/m 18,0 km/h (3 Bft)
29.10.2013 05:42 9,9 C 8,3 C 83 % 1007,0 hPa 0,0 l/m 0 min 0 min 0,0 UV-I 0 W/m 12,9 km/h (3 Bft)
29.10.2013 05:44 9,9 C 8,3 C 83 % 1007,0 hPa 0,0 l/m 0 min 0 min 0,0 UV-I 0 W/m 20,6 km/h (4 Bft)
29.10.2013 05:46 9,9 C 8,3 C 83 % 1007,2 hPa 0,0 l/m 0 min 0 min 0,0 UV-I 0 W/m 18,0 km/h (3 Bft)
29.10.2013 05:48 9,9 C 8,3 C 83 % 1007,1 hPa 0,0 l/m 0 min 0 min 0,0 UV-I 0 W/m 20,6 km/h (4 Bft)
29.10.2013 05:50 9,9 C 8,3 C 83 % 1007,2 hPa 0,0 l/m 0 min 0 min 0,0 UV-I 0 W/m 7,7 km/h (2 Bft)
29.10.2013 05:52 9,8 C 8,3 C 83 % 1007,2 hPa 0,0 l/m 0 min 0 min 0,0 UV-I 0 W/m 7,7 km/h (2 Bft)
29.10.2013 05:54 9,8 C 8,3 C 84 % 1007,2 hPa 0,0 l/m 0 min 0 min 0,0 UV-I 0 W/m 18,0 km/h (3 Bft)
29.10.2013 05:56 9,8 C 8,3 C 84 % 1007,2 hPa 0,0 l/m 0 min 0 min 0,0 UV-I 0 W/m 18,0 km/h (3 Bft)
29.10.2013 05:58 9,8 C 8,3 C 84 % 1007,1 hPa 0,0 l/m 0 min 0 min 0,0 UV-I 0 W/m 23,2 km/h (4 Bft)
29.10.2013 06:00 9,8 C 8,3 C 84 % 1007,1 hPa 0,0 l/m 0 min 0 min 0,0 UV-I 0 W/m 20,6 km/h (4 Bft)
29.10.2013 06:02 9,8 C 8,3 C 84 % 1007,1 hPa 0,0 l/m 0 min 0 min 0,0 UV-I 0 W/m 18,0 km/h (3 Bft)
29.10.2013 06:06 9,8 C 8,3 C 84 % 1007,2 hPa 0,0 l/m 0 min 0 min 0,0 UV-I 0 W/m 20,6 km/h (4 Bft)
29.10.2013 06:08 9,8 C 8,3 C 84 % 1007,3 hPa 0,0 l/m 0 min 0 min 0,0 UV-I 0 W/m 30,9 km/h (5 Bft)
29.10.2013 06:10 9,8 C 8,3 C 84 % 1007,2 hPa 0,0 l/m 0 min 0 min 0,0 UV-I 0 W/m 12,9 km/h (3 Bft)
29.10.2013 06:12 9,8 C 8,3 C 84 % 1007,2 hPa 0,0 l/m 0 min 0 min 0,0 UV-I 0 W/m 15,4 km/h (3 Bft)
29.10.2013 06:14 9,8 C 8,3 C 84 % 1007,1 hPa 0,0 l/m 0 min 0 min 0,0 UV-I 0 W/m 30,9 km/h (5 Bft)
29.10.2013 06:16 9,8 C 8,3 C 84 % 1007,2 hPa 0,0 l/m 0 min 0 min 0,0 UV-I 0 W/m 18,0 km/h (3 Bft)
29.10.2013 06:18 9,8 C 8,3 C 84 % 1007,2 hPa 0,0 l/m 0 min 0 min 0,0 UV-I 0 W/m 18,0 km/h (3 Bft)
29.10.2013 06:20 9,8 C 8,3 C 84 % 1007,3 hPa 0,0 l/m 0 min 0 min 0,0 UV-I 0 W/m 18,0 km/h (3 Bft)
29.10.2013 06:22 9,8 C 8,3 C 84 % 1007,3 hPa 0,0 l/m 0 min 0 min 0,0 UV-I 0 W/m 20,6 km/h (4 Bft)
29.10.2013 06:24 9,8 C 8,3 C 83 % 1007,3 hPa 0,0 l/m 0 min 0 min 0,0 UV-I 0 W/m 18,0 km/h (3 Bft)
29.10.2013 06:26 9,8 C 8,3 C 83 % 1007,3 hPa 0,0 l/m 0 min 0 min 0,0 UV-I 0 W/m 18,0 km/h (3 Bft)
29.10.2013 06:28 9,8 C 8,3 C 83 % 1007,3 hPa 0,0 l/m 0 min 0 min 0,0 UV-I 0 W/m 25,7 km/h (4 Bft)
29.10.2013 06:30 9,8 C 8,3 C 83 % 1007,3 hPa 0,0 l/m 0 min 0 min 0,0 UV-I 0 W/m 23,2 km/h (4 Bft)
29.10.2013 06:32 9,8 C 8,3 C 83 % 1007,5 hPa 0,0 l/m 0 min 0 min 0,0 UV-I 0 W/m 23,2 km/h (4 Bft)
29.10.2013 06:34 9,8 C 8,3 C 83 % 1007,5 hPa 0,0 l/m 0 min 0 min 0,0 UV-I 0 W/m 30,9 km/h (5 Bft)
29.10.2013 06:36 9,8 C 8,3 C 83 % 1007,6 hPa 0,0 l/m 0 min 0 min 0,0 UV-I 0 W/m 18,0 km/h (3 Bft)
29.10.2013 06:38 9,8 C 8,3 C 83 % 1007,5 hPa 0,0 l/m 0 min 0 min 0,0 UV-I 0 W/m 10,3 km/h (2 Bft)
29.10.2013 06:40 9,8 C 8,3 C 83 % 1007,6 hPa 0,0 l/m 0 min 0 min 0,0 UV-I 0 W/m 20,6 km/h (4 Bft)
29.10.2013 06:42 9,8 C 8,3 C 83 % 1007,6 hPa 0,0 l/m 0 min 0 min 0,0 UV-I 0 W/m 20,6 km/h (4 Bft)
29.10.2013 06:44 9,8 C 8,3 C 83 % 1007,7 hPa 0,0 l/m 0 min 0 min 0,0 UV-I 0 W/m 20,6 km/h (4 Bft)
29.10.2013 06:46 9,8 C 8,3 C 83 % 1007,8 hPa 0,0 l/m 0 min 0 min 0,0 UV-I 0 W/m 5,1 km/h (1 Bft)
29.10.2013 06:48 9,8 C 8,3 C 83 % 1007,7 hPa 0,0 l/m 0 min 0 min 0,0 UV-I 0 W/m 25,7 km/h (4 Bft)
29.10.2013 06:50 9,8 C 8,3 C 83 % 1007,7 hPa 0,0 l/m 0 min 0 min 0,0 UV-I 0 W/m 20,6 km/h (4 Bft)
29.10.2013 06:52 9,8 C 8,3 C 83 % 1007,6 hPa 0,0 l/m 0 min 0 min 0,0 UV-I 0 W/m 23,2 km/h (4 Bft)
29.10.2013 06:54 9,8 C 8,3 C 83 % 1007,8 hPa 0,0 l/m 0 min 0 min 0,0 UV-I 0 W/m 20,6 km/h (4 Bft)
29.10.2013 06:56 9,9 C 8,3 C 83 % 1007,6 hPa 0,0 l/m 0 min 0 min 0,0 UV-I 0 W/m 15,4 km/h (3 Bft)
29.10.2013 06:58 9,9 C 8,9 C 83 % 1007,7 hPa 0,0 l/m 0 min 0 min 0,0 UV-I 0 W/m 28,3 km/h (4 Bft)
29.10.2013 07:00 9,9 C 8,9 C 83 % 1007,8 hPa 0,0 l/m 0 min 0 min 0,0 UV-I 0 W/m 23,2 km/h (4 Bft)
29.10.2013 07:02 9,9 C 8,9 C 83 % 1007,8 hPa 0,0 l/m 0 min 0 min 0,0 UV-I 0 W/m 23,2 km/h (4 Bft)
29.10.2013 07:06 10,0 C 8,9 C 82 % 1007,8 hPa 0,0 l/m 0 min 0 min 0,0 UV-I 0 W/m 25,7 km/h (4 Bft)
29.10.2013 07:08 10,0 C 8,9 C 82 % 1007,9 hPa 0,0 l/m 0 min 0 min 0,0 UV-I 0 W/m 12,9 km/h (3 Bft)
29.10.2013 07:10 10,0 C 8,9 C 82 % 1007,8 hPa 0,0 l/m 0 min 0 min 0,0 UV-I 0 W/m 18,0 km/h (3 Bft)
29.10.2013 07:12 10,1 C 8,9 C 82 % 1007,9 hPa 0,0 l/m 0 min 0 min 0,0 UV-I 0 W/m 23,2 km/h (4 Bft)
29.10.2013 07:14 10,1 C 8,9 C 82 % 1007,9 hPa 0,0 l/m 0 min 0 min 0,0 UV-I 0 W/m 23,2 km/h (4 Bft)
29.10.2013 07:16 10,2 C 8,9 C 82 % 1008,1 hPa 0,0 l/m 0 min 0 min 0,0 UV-I 0 W/m 18,0 km/h (3 Bft)
29.10.2013 07:18 10,2 C 8,9 C 82 % 1008,0 hPa 0,0 l/m 0 min 0 min 0,0 UV-I 0 W/m 41,2 km/h (6 Bft)
29.10.2013 07:20 10,2 C 8,9 C 82 % 1008,0 hPa 0,0 l/m 0 min 0 min 0,0 UV-I 0 W/m 12,9 km/h (3 Bft)
29.10.2013 07:22 10,2 C 8,9 C 82 % 1008,1 hPa 0,0 l/m 0 min 0 min 0,0 UV-I 0 W/m 15,4 km/h (3 Bft)
29.10.2013 07:24 10,3 C 8,9 C 82 % 1008,2 hPa 0,0 l/m 0 min 0 min 0,0 UV-I 0 W/m 18,0 km/h (3 Bft)
29.10.2013 07:26 10,3 C 8,9 C 82 % 1008,1 hPa 0,0 l/m 0 min 0 min 0,0 UV-I 0 W/m 36,0 km/h (5 Bft)
29.10.2013 07:28 10,3 C 8,9 C 82 % 1008,1 hPa 0,0 l/m 0 min 0 min 0,0 UV-I 0 W/m 15,4 km/h (3 Bft)
29.10.2013 07:30 10,3 C 8,9 C 82 % 1008,2 hPa 0,0 l/m 0 min 0 min 0,0 UV-I 0 W/m 10,3 km/h (2 Bft)
29.10.2013 07:32 10,3 C 8,9 C 82 % 1008,3 hPa 0,0 l/m 0 min 0 min 0,0 UV-I 0 W/m 18,0 km/h (3 Bft)
29.10.2013 07:34 10,3 C 8,9 C 82 % 1008,3 hPa 0,0 l/m 0 min 0 min 0,0 UV-I 0 W/m 10,3 km/h (2 Bft)
29.10.2013 07:36 10,3 C 9,4 C 82 % 1008,5 hPa 0,0 l/m 0 min 0 min 0,0 UV-I 0 W/m 7,7 km/h (2 Bft)
29.10.2013 07:38 10,4 C 9,4 C 82 % 1008,4 hPa 0,0 l/m 0 min 0 min 0,0 UV-I 0 W/m 15,4 km/h (3 Bft)
29.10.2013 07:40 10,4 C 9,4 C 82 % 1008,4 hPa 0,0 l/m 0 min 0 min 0,0 UV-I 0 W/m 20,6 km/h (4 Bft)
29.10.2013 07:42 10,4 C 9,4 C 82 % 1008,5 hPa 0,0 l/m 0 min 0 min 0,0 UV-I 5 W/m 33,5 km/h (5 Bft)
29.10.2013 07:44 10,4 C 9,4 C 82 % 1008,5 hPa 0,0 l/m 0 min 0 min 0,0 UV-I 5 W/m 5,1 km/h (1 Bft)
29.10.2013 07:46 10,4 C 9,4 C 82 % 1008,5 hPa 0,0 l/m 0 min 0 min 0,0 UV-I 7 W/m 20,6 km/h (4 Bft)
29.10.2013 07:48 10,4 C 9,4 C 82 % 1008,4 hPa 0,0 l/m 0 min 0 min 0,0 UV-I 7 W/m 18,0 km/h (3 Bft)
29.10.2013 07:50 10,4 C 9,4 C 81 % 1008,6 hPa 0,0 l/m 0 min 0 min 0,0 UV-I 7 W/m 18,0 km/h (3 Bft)
29.10.2013 07:52 10,4 C 9,4 C 81 % 1008,6 hPa 0,0 l/m 0 min 0 min 0,0 UV-I 12 W/m 25,7 km/h (4 Bft)
29.10.2013 07:54 10,5 C 9,4 C 81 % 1008,6 hPa 0,0 l/m 0 min 0 min 0,0 UV-I 14 W/m 23,2 km/h (4 Bft)
29.10.2013 07:56 10,5 C 9,4 C 81 % 1008,6 hPa 0,0 l/m 0 min 0 min 0,0 UV-I 14 W/m 33,5 km/h (5 Bft)
29.10.2013 07:58 10,5 C 9,4 C 81 % 1008,7 hPa 0,0 l/m 0 min 0 min 0,0 UV-I 9 W/m 7,7 km/h (2 Bft)
29.10.2013 08:00 10,5 C 9,4 C 81 % 1008,7 hPa 0,0 l/m 0 min 0 min 0,0 UV-I 7 W/m 10,3 km/h (2 Bft)
29.10.2013 08:02 10,6 C 9,4 C 81 % 1008,8 hPa 0,0 l/m 0 min 0 min 0,0 UV-I 9 W/m 18,0 km/h (3 Bft)
29.10.2013 08:06 10,6 C 9,4 C 81 % 1008,8 hPa 0,0 l/m 0 min 0 min 0,0 UV-I 12 W/m 25,7 km/h (4 Bft)
29.10.2013 08:08 10,6 C 9,4 C 81 % 1008,8 hPa 0,0 l/m 0 min 0 min 0,0 UV-I 14 W/m 25,7 km/h (4 Bft)
29.10.2013 08:10 10,6 C 9,4 C 81 % 1008,9 hPa 0,0 l/m 0 min 0 min 0,0 UV-I 25 W/m 15,4 km/h (3 Bft)
29.10.2013 08:12 10,6 C 9,4 C 81 % 1008,9 hPa 0,0 l/m 0 min 0 min 0,0 UV-I 21 W/m 20,6 km/h (4 Bft)
29.10.2013 08:14 10,6 C 9,4 C 81 % 1009,1 hPa 0,0 l/m 0 min 0 min 0,0 UV-I 18 W/m 12,9 km/h (3 Bft)
29.10.2013 08:16 10,6 C 9,4 C 81 % 1009,0 hPa 0,0 l/m 0 min 0 min 0,0 UV-I 21 W/m 18,0 km/h (3 Bft)
29.10.2013 08:18 10,6 C 9,4 C 81 % 1009,0 hPa 0,0 l/m 0 min 0 min 0,0 UV-I 25 W/m 12,9 km/h (3 Bft)
29.10.2013 08:20 10,7 C 9,4 C 81 % 1009,1 hPa 0,0 l/m 0 min 0 min 0,0 UV-I 33 W/m 28,3 km/h (4 Bft)
29.10.2013 08:22 10,7 C 9,4 C 81 % 1009,1 hPa 0,0 l/m 0 min 0 min 0,0 UV-I 44 W/m 23,2 km/h (4 Bft)
29.10.2013 08:24 10,7 C 9,4 C 81 % 1009,1 hPa 0,0 l/m 0 min 0 min 0,0 UV-I 49 W/m 18,0 km/h (3 Bft)
29.10.2013 08:26 10,7 C 9,4 C 81 % 1009,2 hPa 0,0 l/m 0 min 0 min 0,0 UV-I 39 W/m 7,7 km/h (2 Bft)
29.10.2013 08:28 10,7 C 9,4 C 81 % 1009,2 hPa 0,0 l/m 0 min 0 min 0,0 UV-I 53 W/m 5,1 km/h (1 Bft)
29.10.2013 08:30 10,7 C 9,4 C 81 % 1009,3 hPa 0,0 l/m 0 min 0 min 0,0 UV-I 47 W/m 20,6 km/h (4 Bft)
29.10.2013 08:32 10,8 C 9,4 C 81 % 1009,2 hPa 0,0 l/m 0 min 0 min 0,0 UV-I 40 W/m 23,2 km/h (4 Bft)
29.10.2013 08:34 10,8 C 10,0 C 81 % 1009,2 hPa 0,0 l/m 0 min 0 min 0,0 UV-I 49 W/m 28,3 km/h (4 Bft)
29.10.2013 08:36 10,8 C 10,0 C 81 % 1009,3 hPa 0,0 l/m 0 min 0 min 0,0 UV-I 32 W/m 12,9 km/h (3 Bft)
29.10.2013 08:38 10,8 C 10,0 C 81 % 1009,4 hPa 0,0 l/m 0 min 0 min 0,0 UV-I 40 W/m 12,9 km/h (3 Bft)
29.10.2013 08:40 10,8 C 10,0 C 81 % 1009,5 hPa 0,0 l/m 0 min 0 min 0,0 UV-I 40 W/m 12,9 km/h (3 Bft)
29.10.2013 08:42 10,8 C 10,0 C 81 % 1009,4 hPa 0,0 l/m 0 min 0 min 0,0 UV-I 37 W/m 20,6 km/h (4 Bft)
29.10.2013 08:44 10,8 C 10,0 C 81 % 1009,4 hPa 0,0 l/m 0 min 0 min 0,0 UV-I 30 W/m 12,9 km/h (3 Bft)
29.10.2013 08:46 10,8 C 10,0 C 81 % 1009,7 hPa 0,0 l/m 0 min 0 min 0,0 UV-I 35 W/m 12,9 km/h (3 Bft)
29.10.2013 08:48 10,8 C 10,0 C 81 % 1009,7 hPa 0,0 l/m 0 min 0 min 0,0 UV-I 33 W/m 18,0 km/h (3 Bft)
29.10.2013 08:50 10,8 C 10,0 C 81 % 1009,7 hPa 0,0 l/m 0 min 0 min 0,0 UV-I 42 W/m 25,7 km/h (4 Bft)
29.10.2013 08:52 10,8 C 10,0 C 81 % 1009,7 hPa 0,0 l/m 0 min 0 min 0,0 UV-I 35 W/m 20,6 km/h (4 Bft)
29.10.2013 08:54 10,8 C 10,0 C 81 % 1009,7 hPa 0,0 l/m 0 min 0 min 0,0 UV-I 42 W/m 7,7 km/h (2 Bft)
29.10.2013 08:56 10,8 C 10,0 C 81 % 1009,7 hPa 0,0 l/m 0 min 0 min 0,0 UV-I 40 W/m 20,6 km/h (4 Bft)
29.10.2013 08:58 10,8 C 10,0 C 81 % 1009,8 hPa 0,0 l/m 0 min 0 min 0,0 UV-I 33 W/m 25,7 km/h (4 Bft)
29.10.2013 09:00 10,8 C 10,0 C 81 % 1009,8 hPa 0,0 l/m 0 min 0 min 0,0 UV-I 37 W/m 20,6 km/h (4 Bft)
29.10.2013 09:02 10,8 C 10,0 C 81 % 1009,9 hPa 0,0 l/m 0 min 0 min 0,0 UV-I 37 W/m 23,2 km/h (4 Bft)
29.10.2013 09:06 10,8 C 10,0 C 81 % 1010,0 hPa 0,0 l/m 0 min 0 min 0,0 UV-I 42 W/m 15,4 km/h (3 Bft)
29.10.2013 09:08 10,8 C 10,0 C 81 % 1010,0 hPa 0,0 l/m 0 min 0 min 0,0 UV-I 49 W/m 20,6 km/h (4 Bft)
29.10.2013 09:10 10,8 C 10,0 C 81 % 1010,0 hPa 0,0 l/m 0 min 0 min 0,0 UV-I 54 W/m 15,4 km/h (3 Bft)
29.10.2013 09:12 10,8 C 10,0 C 81 % 1010,1 hPa 0,0 l/m 0 min 0 min 0,0 UV-I 74 W/m 25,7 km/h (4 Bft)
29.10.2013 09:14 10,8 C 10,0 C 81 % 1010,1 hPa 0,0 l/m 0 min 0 min 0,0 UV-I 69 W/m 20,6 km/h (4 Bft)
29.10.2013 09:16 10,9 C 10,0 C 81 % 1010,2 hPa 0,0 l/m 0 min 0 min 0,0 UV-I 65 W/m 25,7 km/h (4 Bft)
29.10.2013 09:18 10,9 C 10,0 C 80 % 1010,1 hPa 0,0 l/m 0 min 0 min 0,0 UV-I 70 W/m 20,6 km/h (4 Bft)
29.10.2013 09:20 10,9 C 10,0 C 81 % 1010,1 hPa 0,0 l/m 0 min 0 min 0,0 UV-I 69 W/m 10,3 km/h (2 Bft)
29.10.2013 09:22 10,9 C 10,0 C 81 % 1010,2 hPa 0,0 l/m 0 min 0 min 0,0 UV-I 60 W/m 15,4 km/h (3 Bft)
29.10.2013 09:24 10,9 C 10,0 C 81 % 1010,1 hPa 0,0 l/m 0 min 0 min 0,0 UV-I 63 W/m 18,0 km/h (3 Bft)
29.10.2013 09:26 10,9 C 10,0 C 81 % 1010,2 hPa 0,0 l/m 0 min 0 min 0,0 UV-I 60 W/m 15,4 km/h (3 Bft)
29.10.2013 09:28 10,9 C 10,0 C 81 % 1010,4 hPa 0,0 l/m 0 min 0 min 0,0 UV-I 60 W/m 18,0 km/h (3 Bft)
29.10.2013 09:30 10,9 C 10,0 C 81 % 1010,3 hPa 0,0 l/m 0 min 0 min 0,0 UV-I 74 W/m 18,0 km/h (3 Bft)
29.10.2013 09:32 10,9 C 10,0 C 81 % 1010,3 hPa 0,0 l/m 0 min 0 min 0,0 UV-I 62 W/m 12,9 km/h (3 Bft)
29.10.2013 09:34 10,9 C 10,0 C 81 % 1010,3 hPa 0,0 l/m 0 min 0 min 0,0 UV-I 69 W/m 10,3 km/h (2 Bft)
29.10.2013 09:36 10,9 C 10,0 C 81 % 1010,4 hPa 0,0 l/m 0 min 0 min 0,0 UV-I 56 W/m 30,9 km/h (5 Bft)
29.10.2013 09:38 10,9 C 10,0 C 81 % 1010,3 hPa 0,0 l/m 0 min 0 min 0,0 UV-I 56 W/m 18,0 km/h (3 Bft)
29.10.2013 09:40 10,9 C 10,0 C 81 % 1010,4 hPa 0,0 l/m 0 min 0 min 0,0 UV-I 65 W/m 10,3 km/h (2 Bft)
29.10.2013 09:42 10,9 C 10,0 C 81 % 1010,4 hPa 0,0 l/m 0 min 0 min 0,0 UV-I 120 W/m 18,0 km/h (3 Bft)
29.10.2013 09:44 10,9 C 10,0 C 81 % 1010,5 hPa 0,0 l/m 0 min 0 min 0,0 UV-I 132 W/m 10,3 km/h (2 Bft)
29.10.2013 09:46 11,0 C 10,6 C 81 % 1010,4 hPa 0,0 l/m 0 min 0 min 0,0 UV-I 111 W/m 15,4 km/h (3 Bft)
29.10.2013 09:48 11,1 C 10,6 C 81 % 1010,5 hPa 0,0 l/m 0 min 0 min 0,0 UV-I 118 W/m 10,3 km/h (2 Bft)
29.10.2013 09:50 11,1 C 10,6 C 81 % 1010,5 hPa 0,0 l/m 0 min 0 min 0,0 UV-I 146 W/m 18,0 km/h (3 Bft)
29.10.2013 09:52 11,2 C 10,6 C 81 % 1010,4 hPa 0,0 l/m 0 min 0 min 0,0 UV-I 153 W/m 10,3 km/h (2 Bft)
29.10.2013 09:54 11,2 C 10,6 C 81 % 1010,6 hPa 0,0 l/m 0 min 0 min 0,0 UV-I 144 W/m 30,9 km/h (5 Bft)
29.10.2013 09:56 11,3 C 10,6 C 81 % 1010,6 hPa 0,0 l/m 2 min 0 min 0,0 UV-I 255 W/m 18,0 km/h (3 Bft)
29.10.2013 09:58 11,4 C 10,6 C 81 % 1010,5 hPa 0,0 l/m 2 min 0 min 0,0 UV-I 329 W/m 18,0 km/h (3 Bft)
29.10.2013 10:00 11,5 C 10,6 C 80 % 1010,5 hPa 0,0 l/m 0 min 0 min 0,0 UV-I 118 W/m 25,7 km/h (4 Bft)
29.10.2013 10:02 11,6 C 10,6 C 80 % 1010,6 hPa 0,0 l/m 0 min 0 min 0,0 UV-I 118 W/m 12,9 km/h (3 Bft)
29.10.2013 10:06 11,6 C 10,6 C 79 % 1010,5 hPa 0,0 l/m 0 min 0 min 0,0 UV-I 163 W/m 23,2 km/h (4 Bft)
29.10.2013 10:08 11,6 C 10,6 C 79 % 1010,6 hPa 0,0 l/m 2 min 0 min 0,0 UV-I 193 W/m 15,4 km/h (3 Bft)
29.10.2013 10:10 11,7 C 11,1 C 80 % 1010,7 hPa 0,0 l/m 2 min 0 min 0,0 UV-I 429 W/m 10,3 km/h (2 Bft)
29.10.2013 10:12 11,8 C 11,1 C 79 % 1010,7 hPa 0,0 l/m 2 min 0 min 0,0 UV-I 429 W/m 20,6 km/h (4 Bft)
29.10.2013 10:14 11,8 C 11,1 C 79 % 1010,8 hPa 0,0 l/m 0 min 0 min 0,0 UV-I 137 W/m 12,9 km/h (3 Bft)
29.10.2013 10:16 11,8 C 11,1 C 78 % 1010,8 hPa 0,0 l/m 0 min 0 min 0,0 UV-I 155 W/m 15,4 km/h (3 Bft)
29.10.2013 10:18 11,8 C 11,1 C 79 % 1010,8 hPa 0,0 l/m 0 min 0 min 0,0 UV-I 167 W/m 15,4 km/h (3 Bft)
29.10.2013 10:20 11,9 C 11,1 C 79 % 1010,9 hPa 0,0 l/m 0 min 0 min 0,0 UV-I 137 W/m 20,6 km/h (4 Bft)
29.10.2013 10:22 11,8 C 11,1 C 79 % 1010,9 hPa 0,0 l/m 0 min 0 min 0,0 UV-I 178 W/m 18,0 km/h (3 Bft)
29.10.2013 10:24 11,8 C 11,1 C 78 % 1011,0 hPa 0,0 l/m 0 min 0 min 0,0 UV-I 162 W/m 23,2 km/h (4 Bft)
29.10.2013 10:26 11,8 C 11,1 C 78 % 1010,9 hPa 0,0 l/m 0 min 0 min 0,0 UV-I 171 W/m 10,3 km/h (2 Bft)
29.10.2013 10:28 11,8 C 11,1 C 79 % 1010,9 hPa 0,0 l/m 0 min 0 min 0,0 UV-I 171 W/m 10,3 km/h (2 Bft)
29.10.2013 10:30 11,9 C 11,1 C 78 % 1011,0 hPa 0,0 l/m 0 min 0 min 0,0 UV-I 146 W/m 18,0 km/h (3 Bft)
29.10.2013 10:32 12,0 C 11,1 C 79 % 1010,9 hPa 0,0 l/m 0 min 0 min 0,0 UV-I 146 W/m 10,3 km/h (2 Bft)
29.10.2013 10:34 12,0 C 11,1 C 79 % 1011,0 hPa 0,0 l/m 0 min 0 min 0,0 UV-I 134 W/m 18,0 km/h (3 Bft)
29.10.2013 10:36 12,1 C 11,1 C 79 % 1011,1 hPa 0,0 l/m 2 min 0 min 0,0 UV-I 371 W/m 20,6 km/h (4 Bft)
29.10.2013 10:38 12,1 C 11,1 C 78 % 1011,2 hPa 0,0 l/m 2 min 0 min 0,5 UV-I 371 W/m 12,9 km/h (3 Bft)
29.10.2013 10:40 12,1 C 11,1 C 78 % 1011,1 hPa 0,0 l/m 2 min 0 min 0,0 UV-I 346 W/m 23,2 km/h (4 Bft)
29.10.2013 10:42 12,2 C 11,1 C 77 % 1011,1 hPa 0,0 l/m 0 min 0 min 0,5 UV-I 104 W/m 28,3 km/h (4 Bft)
29.10.2013 10:44 12,1 C 11,1 C 77 % 1011,1 hPa 0,0 l/m 2 min 0 min 0,0 UV-I 367 W/m 25,7 km/h (4 Bft)
29.10.2013 10:46 12,1 C 11,1 C 77 % 1011,1 hPa 0,0 l/m 0 min 0 min 0,0 UV-I 181 W/m 12,9 km/h (3 Bft)
29.10.2013 10:48 12,1 C 11,1 C 77 % 1011,2 hPa 0,0 l/m 0 min 0 min 0,0 UV-I 123 W/m 18,0 km/h (3 Bft)
29.10.2013 10:50 12,0 C 11,1 C 77 % 1011,3 hPa 0,0 l/m 0 min 0 min 0,0 UV-I 123 W/m 20,6 km/h (4 Bft)
29.10.2013 10:52 12,0 C 11,1 C 77 % 1011,2 hPa 0,0 l/m 0 min 0 min 0,5 UV-I 111 W/m 23,2 km/h (4 Bft)
29.10.2013 10:54 12,0 C 10,6 C 77 % 1011,5 hPa 0,0 l/m 0 min 0 min 0,0 UV-I 199 W/m 25,7 km/h (4 Bft)
29.10.2013 10:56 12,1 C 11,1 C 78 % 1011,4 hPa 0,0 l/m 2 min 0 min 0,5 UV-I 311 W/m 15,4 km/h (3 Bft)
29.10.2013 10:58 12,2 C 11,1 C 78 % 1011,3 hPa 0,0 l/m 2 min 0 min 0,6 UV-I 390 W/m 15,4 km/h (3 Bft)
29.10.2013 11:00 12,4 C 11,7 C 78 % 1011,3 hPa 0,0 l/m 2 min 0 min 0,6 UV-I 401 W/m 30,9 km/h (5 Bft)
29.10.2013 11:02 12,5 C 11,7 C 76 % 1011,3 hPa 0,0 l/m 2 min 0 min 0,6 UV-I 392 W/m 20,6 km/h (4 Bft)
29.10.2013 11:06 12,7 C 11,7 C 76 % 1011,4 hPa 0,0 l/m 2 min 0 min 0,6 UV-I 396 W/m 20,6 km/h (4 Bft)
29.10.2013 11:08 12,7 C 11,7 C 76 % 1011,5 hPa 0,0 l/m 2 min 0 min 0,6 UV-I 387 W/m 28,3 km/h (4 Bft)
29.10.2013 11:10 12,7 C 11,7 C 75 % 1011,4 hPa 0,0 l/m 2 min 0 min 0,6 UV-I 385 W/m 18,0 km/h (3 Bft)
29.10.2013 11:12 12,8 C 11,7 C 75 % 1011,6 hPa 0,0 l/m 2 min 0 min 0,7 UV-I 434 W/m 43,8 km/h (6 Bft)
29.10.2013 11:14 12,8 C 11,7 C 75 % 1011,7 hPa 0,0 l/m 2 min 0 min 0,7 UV-I 302 W/m 20,6 km/h (4 Bft)
29.10.2013 11:16 12,8 C 11,7 C 75 % 1011,5 hPa 0,0 l/m 2 min 0 min 0,6 UV-I 397 W/m 25,7 km/h (4 Bft)
29.10.2013 11:18 12,8 C 11,7 C 75 % 1011,6 hPa 0,0 l/m 2 min 0 min 0,6 UV-I 359 W/m 12,9 km/h (3 Bft)
29.10.2013 11:20 12,9 C 11,7 C 75 % 1011,6 hPa 0,0 l/m 2 min 0 min 0,6 UV-I 322 W/m 30,9 km/h (5 Bft)
29.10.2013 11:22 12,8 C 11,7 C 74 % 1011,7 hPa 0,0 l/m 2 min 0 min 0,5 UV-I 388 W/m 25,7 km/h (4 Bft)
29.10.2013 11:24 12,8 C 11,7 C 75 % 1011,6 hPa 0,0 l/m 2 min 0 min 0,5 UV-I 396 W/m 15,4 km/h (3 Bft)
29.10.2013 11:26 12,9 C 11,7 C 76 % 1011,6 hPa 0,0 l/m 2 min 0 min 0,0 UV-I 406 W/m 18,0 km/h (3 Bft)
29.10.2013 11:28 13,0 C 12,2 C 76 % 1011,6 hPa 0,0 l/m 2 min 0 min 0,0 UV-I 406 W/m 18,0 km/h (3 Bft)
29.10.2013 11:30 13,1 C 12,2 C 75 % 1011,6 hPa 0,0 l/m 2 min 0 min 0,0 UV-I 397 W/m 20,6 km/h (4 Bft)
29.10.2013 11:32 13,2 C 12,2 C 75 % 1011,7 hPa 0,0 l/m 2 min 0 min 0,0 UV-I 406 W/m 10,3 km/h (2 Bft)
29.10.2013 11:34 13,2 C 12,2 C 75 % 1011,7 hPa 0,0 l/m 2 min 0 min 0,0 UV-I 394 W/m 18,0 km/h (3 Bft)
29.10.2013 11:36 13,2 C 12,2 C 74 % 1011,7 hPa 0,0 l/m 2 min 0 min 0,0 UV-I 410 W/m 18,0 km/h (3 Bft)
29.10.2013 11:38 13,1 C 11,7 C 74 % 1011,6 hPa 0,0 l/m 0 min 0 min 0,0 UV-I 118 W/m 12,9 km/h (3 Bft)
29.10.2013 11:40 13,0 C 11,7 C 75 % 1011,7 hPa 0,0 l/m 0 min 0 min 0,0 UV-I 148 W/m 18,0 km/h (3 Bft)
29.10.2013 11:42 12,9 C 11,7 C 75 % 1011,7 hPa 0,0 l/m 0 min 0 min 0,0 UV-I 148 W/m 15,4 km/h (3 Bft)
29.10.2013 11:44 12,9 C 11,7 C 75 % 1011,8 hPa 0,0 l/m 0 min 0 min 0,0 UV-I 141 W/m 12,9 km/h (3 Bft)
29.10.2013 11:46 12,9 C 12,2 C 76 % 1011,7 hPa 0,0 l/m 2 min 0 min 0,0 UV-I 434 W/m 5,1 km/h (1 Bft)
29.10.2013 11:48 13,1 C 12,2 C 75 % 1011,8 hPa 0,0 l/m 2 min 0 min 0,0 UV-I 471 W/m 15,4 km/h (3 Bft)
29.10.2013 11:50 13,1 C 12,2 C 75 % 1011,8 hPa 0,0 l/m 2 min 0 min 0,0 UV-I 506 W/m 23,2 km/h (4 Bft)
29.10.2013 11:52 13,2 C 12,2 C 74 % 1011,7 hPa 0,0 l/m 2 min 0 min 0,0 UV-I 506 W/m 33,5 km/h (5 Bft)
29.10.2013 11:54 13,2 C 12,2 C 74 % 1011,7 hPa 0,0 l/m 2 min 0 min 0,0 UV-I 506 W/m 15,4 km/h (3 Bft)
29.10.2013 11:56 13,3 C 12,8 C 74 % 1011,8 hPa 0,0 l/m 2 min 0 min 0,0 UV-I 506 W/m 23,2 km/h (4 Bft)
29.10.2013 11:58 13,3 C 12,2 C 73 % 1011,8 hPa 0,0 l/m 0 min 0 min 0,0 UV-I 186 W/m 30,9 km/h (5 Bft)
29.10.2013 12:00 13,2 C 12,2 C 73 % 1011,8 hPa 0,0 l/m 0 min 0 min 0,0 UV-I 160 W/m 20,6 km/h (4 Bft)
29.10.2013 12:02 13,1 C 12,2 C 74 % 1011,8 hPa 0,0 l/m 0 min 0 min 0,0 UV-I 181 W/m 15,4 km/h (3 Bft)
29.10.2013 12:06 12,9 C 12,2 C 74 % 1011,7 hPa 0,0 l/m 0 min 0 min 0,0 UV-I 209 W/m 30,9 km/h (5 Bft)
29.10.2013 12:08 13,0 C 12,2 C 74 % 1011,9 hPa 0,0 l/m 0 min 0 min 0,0 UV-I 211 W/m 15,4 km/h (3 Bft)
29.10.2013 12:10 13,1 C 12,2 C 74 % 1011,8 hPa 0,0 l/m 0 min 0 min 0,0 UV-I 192 W/m 5,1 km/h (1 Bft)
29.10.2013 12:12 13,2 C 12,2 C 75 % 1011,8 hPa 0,0 l/m 0 min 0 min 0,0 UV-I 123 W/m 15,4 km/h (3 Bft)
29.10.2013 12:14 13,2 C 12,2 C 74 % 1011,8 hPa 0,0 l/m 0 min 0 min 0,0 UV-I 146 W/m 12,9 km/h (3 Bft)
29.10.2013 12:16 13,2 C 12,2 C 74 % 1011,8 hPa 0,0 l/m 0 min 0 min 0,0 UV-I 142 W/m 28,3 km/h (4 Bft)
29.10.2013 12:18 13,2 C 12,2 C 74 % 1011,8 hPa 0,0 l/m 0 min 0 min 0,0 UV-I 209 W/m 10,3 km/h (2 Bft)
29.10.2013 12:20 13,3 C 12,8 C 74 % 1011,8 hPa 0,0 l/m 0 min 0 min 0,7 UV-I 209 W/m 23,2 km/h (4 Bft)
29.10.2013 12:22 13,4 C 12,8 C 73 % 1011,7 hPa 0,0 l/m 2 min 0 min 0,8 UV-I 506 W/m 28,3 km/h (4 Bft)
29.10.2013 12:24 13,6 C 12,8 C 71 % 1011,7 hPa 0,0 l/m 2 min 0 min 0,8 UV-I 483 W/m 38,6 km/h (5 Bft)
29.10.2013 12:26 13,6 C 12,8 C 71 % 1011,9 hPa 0,0 l/m 2 min 0 min 0,0 UV-I 478 W/m 20,6 km/h (4 Bft)
29.10.2013 12:28 13,5 C 12,8 C 71 % 1011,8 hPa 0,0 l/m 0 min 0 min 0,0 UV-I 77 W/m 15,4 km/h (3 Bft)
29.10.2013 12:30 13,3 C 12,2 C 71 % 1011,7 hPa 0,0 l/m 0 min 0 min 0,5 UV-I 77 W/m 18,0 km/h (3 Bft)
29.10.2013 12:32 13,2 C 12,2 C 71 % 1011,8 hPa 0,0 l/m 0 min 0 min 0,5 UV-I 91 W/m 20,6 km/h (4 Bft)
29.10.2013 12:34 13,1 C 12,2 C 72 % 1011,8 hPa 0,0 l/m 0 min 0 min 0,0 UV-I 98 W/m 18,0 km/h (3 Bft)
29.10.2013 12:36 13,0 C 11,7 C 72 % 1011,8 hPa 0,0 l/m 0 min 0 min 0,8 UV-I 202 W/m 12,9 km/h (3 Bft)
29.10.2013 12:38 13,1 C 12,2 C 73 % 1011,8 hPa 0,0 l/m 2 min 0 min 0,8 UV-I 285 W/m 12,9 km/h (3 Bft)
29.10.2013 12:40 13,2 C 12,2 C 73 % 1011,8 hPa 0,0 l/m 0 min 0 min 0,0 UV-I 181 W/m 18,0 km/h (3 Bft)
29.10.2013 12:42 13,2 C 12,2 C 73 % 1011,7 hPa 0,0 l/m 0 min 0 min 0,5 UV-I 178 W/m 20,6 km/h (4 Bft)
29.10.2013 12:44 13,2 C 12,2 C 72 % 1011,9 hPa 0,0 l/m 0 min 0 min 0,0 UV-I 160 W/m 25,7 km/h (4 Bft)
29.10.2013 12:46 13,2 C 12,2 C 72 % 1011,8 hPa 0,0 l/m 0 min 0 min 0,0 UV-I 178 W/m 41,2 km/h (6 Bft)
29.10.2013 12:48 13,1 C 12,2 C 72 % 1011,9 hPa 0,0 l/m 0 min 0 min 0,0 UV-I 120 W/m 38,6 km/h (5 Bft)
29.10.2013 12:50 13,0 C 12,2 C 73 % 1011,8 hPa 0,0 l/m 0 min 0 min 0,0 UV-I 162 W/m 18,0 km/h (3 Bft)
29.10.2013 12:52 13,1 C 12,2 C 73 % 1011,8 hPa 0,0 l/m 2 min 0 min 0,8 UV-I 436 W/m 23,2 km/h (4 Bft)
29.10.2013 12:54 13,2 C 12,2 C 73 % 1011,8 hPa 0,0 l/m 2 min 0 min 0,7 UV-I 436 W/m 12,9 km/h (3 Bft)
29.10.2013 12:56 13,4 C 12,8 C 73 % 1011,8 hPa 0,0 l/m 2 min 0 min 0,7 UV-I 485 W/m 10,3 km/h (2 Bft)
29.10.2013 12:58 13,6 C 12,8 C 72 % 1011,8 hPa 0,0 l/m 2 min 0 min 0,6 UV-I 290 W/m 28,3 km/h (4 Bft)
29.10.2013 13:00 13,6 C 12,8 C 71 % 1011,8 hPa 0,0 l/m 0 min 0 min 0,0 UV-I 174 W/m 36,0 km/h (5 Bft)
29.10.2013 13:02 13,4 C 12,2 C 71 % 1011,9 hPa 0,0 l/m 0 min 0 min 0,0 UV-I 86 W/m 20,6 km/h (4 Bft)
29.10.2013 13:06 13,3 C 12,2 C 72 % 1011,8 hPa 0,0 l/m 2 min 0 min 0,8 UV-I 397 W/m 20,6 km/h (4 Bft)
29.10.2013 13:08 13,4 C 12,2 C 73 % 1011,8 hPa 0,0 l/m 2 min 0 min 0,7 UV-I 410 W/m 12,9 km/h (3 Bft)
29.10.2013 13:10 13,5 C 12,2 C 73 % 1011,9 hPa 0,0 l/m 2 min 0 min 0,7 UV-I 410 W/m 12,9 km/h (3 Bft)
29.10.2013 13:12 13,4 C 12,2 C 72 % 1011,8 hPa 0,0 l/m 2 min 0 min 0,5 UV-I 445 W/m 20,6 km/h (4 Bft)
29.10.2013 13:14 13,4 C 12,2 C 72 % 1012,0 hPa 0,0 l/m 2 min 0 min 0,7 UV-I 373 W/m 23,2 km/h (4 Bft)
29.10.2013 13:16 13,3 C 12,2 C 72 % 1011,8 hPa 0,0 l/m 0 min 0 min 0,0 UV-I 134 W/m 33,5 km/h (5 Bft)
29.10.2013 13:18 13,2 C 12,2 C 72 % 1011,9 hPa 0,0 l/m 0 min 0 min 0,0 UV-I 114 W/m 18,0 km/h (3 Bft)
29.10.2013 13:20 13,1 C 12,2 C 73 % 1011,9 hPa 0,0 l/m 0 min 0 min 0,0 UV-I 127 W/m 12,9 km/h (3 Bft)
29.10.2013 13:22 13,0 C 12,2 C 74 % 1011,9 hPa 0,0 l/m 0 min 0 min 0,0 UV-I 171 W/m 10,3 km/h (2 Bft)
29.10.2013 13:24 13,0 C 12,2 C 74 % 1011,9 hPa 0,0 l/m 2 min 0 min 0,0 UV-I 223 W/m 18,0 km/h (3 Bft)
29.10.2013 13:26 13,0 C 12,2 C 73 % 1011,9 hPa 0,0 l/m 2 min 0 min 0,7 UV-I 436 W/m 36,0 km/h (5 Bft)
29.10.2013 13:28 13,2 C 12,2 C 74 % 1011,9 hPa 0,0 l/m 2 min 0 min 0,7 UV-I 411 W/m 18,0 km/h (3 Bft)
29.10.2013 13:30 13,2 C 12,2 C 73 % 1011,9 hPa 0,0 l/m 2 min 0 min 0,7 UV-I 411 W/m 30,9 km/h (5 Bft)
29.10.2013 13:32 13,2 C 12,2 C 73 % 1012,1 hPa 0,0 l/m 2 min 0 min 0,5 UV-I 404 W/m 20,6 km/h (4 Bft)
29.10.2013 13:34 13,3 C 12,2 C 73 % 1011,9 hPa 0,0 l/m 0 min 0 min 0,0 UV-I 88 W/m 15,4 km/h (3 Bft)
29.10.2013 13:36 13,2 C 12,2 C 72 % 1012,0 hPa 0,0 l/m 0 min 0 min 0,0 UV-I 86 W/m 10,3 km/h (2 Bft)
29.10.2013 13:38 13,1 C 11,7 C 73 % 1011,9 hPa 0,0 l/m 0 min 0 min 0,0 UV-I 102 W/m 20,6 km/h (4 Bft)
29.10.2013 13:40 13,0 C 11,7 C 73 % 1011,9 hPa 0,0 l/m 0 min 0 min 0,0 UV-I 174 W/m 15,4 km/h (3 Bft)
29.10.2013 13:42 13,0 C 12,2 C 73 % 1011,9 hPa 0,0 l/m 0 min 0 min 0,0 UV-I 171 W/m 18,0 km/h (3 Bft)
29.10.2013 13:44 13,0 C 12,2 C 73 % 1012,0 hPa 0,0 l/m 0 min 0 min 0,0 UV-I 127 W/m 12,9 km/h (3 Bft)
29.10.2013 13:46 13,0 C 12,2 C 74 % 1011,9 hPa 0,0 l/m 0 min 0 min 0,0 UV-I 102 W/m 15,4 km/h (3 Bft)
29.10.2013 13:48 13,0 C 12,2 C 74 % 1012,0 hPa 0,0 l/m 0 min 0 min 0,0 UV-I 88 W/m 7,7 km/h (2 Bft)
29.10.2013 13:50 12,9 C 12,2 C 74 % 1011,9 hPa 0,0 l/m 0 min 0 min 0,0 UV-I 105 W/m 10,3 km/h (2 Bft)
29.10.2013 13:52 12,9 C 12,2 C 74 % 1011,9 hPa 0,0 l/m 0 min 0 min 0,0 UV-I 102 W/m 10,3 km/h (2 Bft)
29.10.2013 13:54 12,8 C 11,7 C 74 % 1012,0 hPa 0,0 l/m 0 min 0 min 0,0 UV-I 95 W/m 18,0 km/h (3 Bft)
29.10.2013 13:56 12,8 C 11,7 C 74 % 1012,1 hPa 0,0 l/m 0 min 0 min 0,0 UV-I 95 W/m 12,9 km/h (3 Bft)
29.10.2013 13:58 12,7 C 11,7 C 74 % 1012,0 hPa 0,0 l/m 0 min 0 min 0,0 UV-I 118 W/m 15,4 km/h (3 Bft)
29.10.2013 14:00 12,7 C 11,7 C 74 % 1012,0 hPa 0,0 l/m 0 min 0 min 0,0 UV-I 146 W/m 15,4 km/h (3 Bft)
29.10.2013 14:02 12,7 C 12,2 C 75 % 1012,0 hPa 0,0 l/m 0 min 0 min 0,0 UV-I 148 W/m 15,4 km/h (3 Bft)
29.10.2013 14:06 12,8 C 12,2 C 75 % 1012,1 hPa 0,0 l/m 2 min 0 min 0,0 UV-I 446 W/m 25,7 km/h (4 Bft)
29.10.2013 14:08 13,0 C 12,8 C 74 % 1012,0 hPa 0,0 l/m 2 min 0 min 0,0 UV-I 374 W/m 7,7 km/h (2 Bft)
29.10.2013 14:10 13,2 C 12,2 C 74 % 1012,1 hPa 0,0 l/m 2 min 0 min 0,0 UV-I 374 W/m 12,9 km/h (3 Bft)
29.10.2013 14:12 13,2 C 12,2 C 74 % 1012,1 hPa 0,0 l/m 0 min 0 min 0,0 UV-I 146 W/m 18,0 km/h (3 Bft)
29.10.2013 14:14 13,1 C 12,2 C 73 % 1012,1 hPa 0,0 l/m 0 min 0 min 0,0 UV-I 149 W/m 25,7 km/h (4 Bft)
29.10.2013 14:16 13,0 C 12,2 C 74 % 1012,0 hPa 0,0 l/m 0 min 0 min 0,0 UV-I 146 W/m 10,3 km/h (2 Bft)
29.10.2013 14:18 12,9 C 12,2 C 74 % 1012,1 hPa 0,0 l/m 0 min 0 min 0,0 UV-I 149 W/m 12,9 km/h (3 Bft)
29.10.2013 14:20 12,9 C 12,2 C 75 % 1012,0 hPa 0,0 l/m 0 min 0 min 0,0 UV-I 153 W/m 12,9 km/h (3 Bft)
29.10.2013 14:22 13,0 C 12,2 C 75 % 1012,1 hPa 0,0 l/m 2 min 0 min 0,0 UV-I 399 W/m 12,9 km/h (3 Bft)
29.10.2013 14:24 13,1 C 12,2 C 74 % 1012,1 hPa 0,0 l/m 0 min 0 min 0,0 UV-I 165 W/m 18,0 km/h (3 Bft)
29.10.2013 14:26 13,0 C 12,2 C 74 % 1012,0 hPa 0,0 l/m 0 min 0 min 0,0 UV-I 165 W/m 25,7 km/h (4 Bft)
29.10.2013 14:28 13,0 C 12,2 C 74 % 1012,1 hPa 0,0 l/m 0 min 0 min 0,0 UV-I 135 W/m 12,9 km/h (3 Bft)
29.10.2013 14:30 13,1 C 12,2 C 74 % 1012,0 hPa 0,0 l/m 2 min 0 min 0,0 UV-I 295 W/m 20,6 km/h (4 Bft)
29.10.2013 14:32 13,1 C 12,2 C 74 % 1012,1 hPa 0,0 l/m 0 min 0 min 0,0 UV-I 158 W/m 23,2 km/h (4 Bft)
29.10.2013 14:34 13,1 C 12,2 C 75 % 1012,0 hPa 0,0 l/m 2 min 0 min 0,0 UV-I 230 W/m 20,6 km/h (4 Bft)
29.10.2013 14:36 13,2 C 12,8 C 75 % 1012,0 hPa 0,0 l/m 2 min 0 min 0,0 UV-I 392 W/m 20,6 km/h (4 Bft)
29.10.2013 14:38 13,3 C 12,8 C 75 % 1012,0 hPa 0,0 l/m 2 min 0 min 0,0 UV-I 385 W/m 23,2 km/h (4 Bft)
29.10.2013 14:40 13,4 C 12,8 C 74 % 1012,0 hPa 0,0 l/m 2 min 0 min 0,0 UV-I 364 W/m 23,2 km/h (4 Bft)
29.10.2013 14:42 13,4 C 12,8 C 74 % 1012,1 hPa 0,0 l/m 2 min 0 min 0,0 UV-I 299 W/m 15,4 km/h (3 Bft)
29.10.2013 14:44 13,4 C 12,2 C 73 % 1012,1 hPa 0,0 l/m 0 min 0 min 0,0 UV-I 56 W/m 28,3 km/h (4 Bft)
29.10.2013 14:46 13,2 C 11,7 C 73 % 1012,1 hPa 0,0 l/m 0 min 0 min 0,0 UV-I 42 W/m 18,0 km/h (3 Bft)
29.10.2013 14:48 13,0 C 11,7 C 74 % 1012,1 hPa 0,0 l/m 0 min 0 min 0,0 UV-I 46 W/m 25,7 km/h (4 Bft)
29.10.2013 14:50 12,8 C 11,7 C 75 % 1012,1 hPa 0,0 l/m 0 min 0 min 0,0 UV-I 53 W/m 28,3 km/h (4 Bft)
29.10.2013 14:52 12,7 C 11,1 C 75 % 1012,1 hPa 0,0 l/m 0 min 0 min 0,0 UV-I 60 W/m 12,9 km/h (3 Bft)
29.10.2013 14:54 12,6 C 11,7 C 76 % 1012,1 hPa 0,0 l/m 0 min 0 min 0,0 UV-I 49 W/m 12,9 km/h (3 Bft)
29.10.2013 14:56 12,5 C 11,1 C 77 % 1012,2 hPa 0,0 l/m 0 min 0 min 0,0 UV-I 51 W/m 18,0 km/h (3 Bft)
29.10.2013 14:58 12,4 C 11,1 C 77 % 1012,1 hPa 0,0 l/m 0 min 0 min 0,0 UV-I 53 W/m 20,6 km/h (4 Bft)
29.10.2013 15:00 12,4 C 11,1 C 77 % 1012,2 hPa 0,0 l/m 0 min 0 min 0,0 UV-I 40 W/m 15,4 km/h (3 Bft)
29.10.2013 15:02 12,4 C 11,1 C 78 % 1012,2 hPa 0,0 l/m 0 min 0 min 0,0 UV-I 42 W/m 18,0 km/h (3 Bft)
29.10.2013 15:06 12,3 C 11,1 C 78 % 1012,2 hPa 0,0 l/m 0 min 0 min 0,0 UV-I 49 W/m 12,9 km/h (3 Bft)
29.10.2013 15:08 12,3 C 11,1 C 78 % 1012,2 hPa 0,0 l/m 0 min 0 min 0,0 UV-I 47 W/m 7,7 km/h (2 Bft)
29.10.2013 15:10 12,3 C 11,1 C 78 % 1012,2 hPa 0,0 l/m 0 min 2 min 0,0 UV-I 44 W/m 12,9 km/h (3 Bft)
29.10.2013 15:12 12,3 C 11,1 C 78 % 1012,2 hPa 0,0 l/m 0 min 0 min 0,0 UV-I 44 W/m 12,9 km/h (3 Bft)
29.10.2013 15:14 12,3 C 11,1 C 79 % 1012,3 hPa 0,0 l/m 0 min 0 min 0,0 UV-I 42 W/m 15,4 km/h (3 Bft)
29.10.2013 15:16 12,3 C 11,1 C 79 % 1012,3 hPa 0,0 l/m 0 min 0 min 0,0 UV-I 25 W/m 12,9 km/h (3 Bft)
29.10.2013 15:18 12,3 C 11,1 C 79 % 1012,3 hPa 0,0 l/m 0 min 0 min 0,0 UV-I 19 W/m 10,3 km/h (2 Bft)
29.10.2013 15:20 12,3 C 11,1 C 78 % 1012,3 hPa 0,0 l/m 0 min 2 min 0,0 UV-I 21 W/m 18,0 km/h (3 Bft)
29.10.2013 15:22 12,3 C 10,6 C 78 % 1012,2 hPa 0,0 l/m 0 min 2 min 0,0 UV-I 28 W/m 30,9 km/h (5 Bft)
29.10.2013 15:24 12,3 C 10,6 C 78 % 1012,3 hPa 0,0 l/m 0 min 2 min 0,0 UV-I 51 W/m 30,9 km/h (5 Bft)
29.10.2013 15:26 12,3 C 11,1 C 78 % 1012,4 hPa 0,0 l/m 0 min 0 min 0,0 UV-I 70 W/m 15,4 km/h (3 Bft)
29.10.2013 15:28 12,3 C 11,1 C 78 % 1012,4 hPa 0,0 l/m 0 min 2 min 0,0 UV-I 107 W/m 15,4 km/h (3 Bft)
29.10.2013 15:30 12,3 C 11,1 C 78 % 1012,3 hPa 0,0 l/m 0 min 2 min 0,0 UV-I 84 W/m 10,3 km/h (2 Bft)
29.10.2013 15:32 12,3 C 11,1 C 78 % 1012,4 hPa 0,0 l/m 0 min 0 min 0,0 UV-I 44 W/m 7,7 km/h (2 Bft)
29.10.2013 15:34 12,3 C 11,1 C 78 % 1012,3 hPa 0,0 l/m 0 min 0 min 0,0 UV-I 37 W/m 12,9 km/h (3 Bft)
29.10.2013 15:36 12,3 C 11,1 C 77 % 1012,4 hPa 0,0 l/m 0 min 0 min 0,0 UV-I 32 W/m 10,3 km/h (2 Bft)
29.10.2013 15:38 12,3 C 11,1 C 77 % 1012,5 hPa 0,0 l/m 0 min 0 min 0,0 UV-I 26 W/m 20,6 km/h (4 Bft)
29.10.2013 15:40 12,3 C 11,1 C 77 % 1012,4 hPa 0,0 l/m 0 min 2 min 0,0 UV-I 25 W/m 18,0 km/h (3 Bft)
29.10.2013 15:42 12,3 C 11,1 C 77 % 1012,5 hPa 0,0 l/m 0 min 0 min 0,0 UV-I 21 W/m 15,4 km/h (3 Bft)
29.10.2013 15:44 12,3 C 11,1 C 77 % 1012,4 hPa 0,0 l/m 0 min 2 min 0,0 UV-I 23 W/m 10,3 km/h (2 Bft)
29.10.2013 15:46 12,3 C 10,6 C 77 % 1012,4 hPa 0,0 l/m 0 min 2 min 0,0 UV-I 39 W/m 20,6 km/h (4 Bft)
29.10.2013 15:48 12,2 C 10,6 C 78 % 1012,4 hPa 0,0 l/m 0 min 2 min 0,0 UV-I 49 W/m 28,3 km/h (4 Bft)
29.10.2013 15:50 12,1 C 10,0 C 79 % 1012,5 hPa 0,0 l/m 0 min 2 min 0,0 UV-I 58 W/m 15,4 km/h (3 Bft)
29.10.2013 15:52 12,1 C 10,0 C 79 % 1012,4 hPa 0,0 l/m 0 min 2 min 0,0 UV-I 47 W/m 12,9 km/h (3 Bft)
29.10.2013 15:54 12,0 C 10,0 C 79 % 1012,4 hPa 0,0 l/m 0 min 0 min 0,0 UV-I 42 W/m 12,9 km/h (3 Bft)
29.10.2013 15:56 11,9 C 10,6 C 79 % 1012,4 hPa 0,0 l/m 0 min 0 min 0,0 UV-I 42 W/m 12,9 km/h (3 Bft)
29.10.2013 15:58 11,9 C 10,6 C 79 % 1012,5 hPa 0,0 l/m 0 min 0 min 0,0 UV-I 39 W/m 18,0 km/h (3 Bft)
29.10.2013 16:00 11,9 C 10,6 C 79 % 1012,5 hPa 0,0 l/m 0 min 0 min 0,0 UV-I 35 W/m 15,4 km/h (3 Bft)
29.10.2013 16:02 11,9 C 10,6 C 79 % 1012,5 hPa 0,0 l/m 0 min 0 min 0,0 UV-I 33 W/m 12,9 km/h (3 Bft)
29.10.2013 16:06 11,9 C 10,6 C 80 % 1012,5 hPa 0,0 l/m 0 min 0 min 0,0 UV-I 40 W/m 20,6 km/h (4 Bft)
29.10.2013 16:08 11,8 C 10,6 C 79 % 1012,5 hPa 0,0 l/m 0 min 0 min 0,0 UV-I 32 W/m 18,0 km/h (3 Bft)
29.10.2013 16:10 11,9 C 10,6 C 80 % 1012,5 hPa 0,0 l/m 0 min 0 min 0,0 UV-I 18 W/m 12,9 km/h (3 Bft)
29.10.2013 16:12 11,8 C 10,6 C 79 % 1012,5 hPa 0,0 l/m 0 min 0 min 0,0 UV-I 12 W/m 10,3 km/h (2 Bft)
29.10.2013 16:14 11,9 C 10,6 C 79 % 1012,5 hPa 0,0 l/m 0 min 0 min 0,0 UV-I 9 W/m 5,1 km/h (1 Bft)
29.10.2013 16:16 11,9 C 10,6 C 79 % 1012,5 hPa 0,0 l/m 0 min 2 min 0,0 UV-I 9 W/m 2,6 km/h (1 Bft)
29.10.2013 16:18 11,8 C 10,6 C 80 % 1012,6 hPa 0,0 l/m 0 min 2 min 0,0 UV-I 12 W/m 7,7 km/h (2 Bft)
29.10.2013 16:20 11,8 C 10,0 C 80 % 1012,5 hPa 0,0 l/m 0 min 2 min 0,0 UV-I 14 W/m 12,9 km/h (3 Bft)
29.10.2013 16:22 11,8 C 9,4 C 81 % 1012,5 hPa 0,0 l/m 0 min 2 min 0,0 UV-I 12 W/m 7,7 km/h (2 Bft)
29.10.2013 16:24 11,7 C 9,4 C 81 % 1012,5 hPa 0,0 l/m 0 min 0 min 0,0 UV-I 9 W/m 0,0 km/h (0 Bft)
29.10.2013 16:26 11,7 C 9,4 C 81 % 1012,6 hPa 0,0 l/m 0 min 0 min 0,0 UV-I 7 W/m 5,1 km/h (1 Bft)
29.10.2013 16:28 11,7 C 9,4 C 82 % 1012,7 hPa 0,0 l/m 0 min 2 min 0,0 UV-I 9 W/m 0,0 km/h (0 Bft)
29.10.2013 16:30 11,6 C 9,4 C 82 % 1012,7 hPa 0,0 l/m 0 min 2 min 0,0 UV-I 9 W/m 0,0 km/h (0 Bft)
29.10.2013 16:32 11,5 C 8,9 C 83 % 1012,7 hPa 0,2 l/m 0 min 2 min 0,0 UV-I 12 W/m 0,0 km/h (0 Bft)
29.10.2013 16:34 11,3 C 8,9 C 84 % 1012,7 hPa 0,0 l/m 0 min 2 min 0,0 UV-I 12 W/m 2,6 km/h (1 Bft)
29.10.2013 16:36 11,2 C 8,9 C 85 % 1012,7 hPa 0,0 l/m 0 min 2 min 0,0 UV-I 12 W/m 0,0 km/h (0 Bft)
29.10.2013 16:38 11,1 C 8,9 C 85 % 1012,7 hPa 0,0 l/m 0 min 2 min 0,0 UV-I 16 W/m 7,7 km/h (2 Bft)
29.10.2013 16:40 11,0 C 8,9 C 86 % 1012,8 hPa 0,0 l/m 0 min 2 min 0,0 UV-I 21 W/m 0,0 km/h (0 Bft)
29.10.2013 16:42 10,9 C 8,9 C 87 % 1012,8 hPa 0,0 l/m 0 min 2 min 0,0 UV-I 23 W/m 0,0 km/h (0 Bft)
29.10.2013 16:44 10,9 C 8,9 C 87 % 1012,8 hPa 0,0 l/m 0 min 2 min 0,0 UV-I 19 W/m 0,0 km/h (0 Bft)
29.10.2013 16:46 10,8 C 8,9 C 88 % 1012,8 hPa 0,2 l/m 0 min 2 min 0,0 UV-I 12 W/m 0,0 km/h (0 Bft)
29.10.2013 16:48 10,7 C 8,9 C 88 % 1012,9 hPa 0,0 l/m 0 min 0 min 0,0 UV-I 9 W/m 0,0 km/h (0 Bft)
29.10.2013 16:50 10,7 C 8,9 C 89 % 1012,8 hPa 0,0 l/m 0 min 0 min 0,0 UV-I 7 W/m 0,0 km/h (0 Bft)
29.10.2013 16:52 10,6 C 8,9 C 89 % 1012,8 hPa 0,0 l/m 0 min 0 min 0,0 UV-I 7 W/m 2,6 km/h (1 Bft)
29.10.2013 16:54 10,6 C 8,9 C 89 % 1012,8 hPa 0,0 l/m 0 min 2 min 0,0 UV-I 7 W/m 0,0 km/h (0 Bft)
29.10.2013 16:56 10,6 C 8,9 C 90 % 1012,8 hPa 0,0 l/m 0 min 2 min 0,0 UV-I 7 W/m 10,3 km/h (2 Bft)
29.10.2013 16:58 10,6 C 8,3 C 89 % 1012,8 hPa 0,0 l/m 0 min 0 min 0,0 UV-I 5 W/m 20,6 km/h (4 Bft)
29.10.2013 17:00 10,6 C 8,3 C 89 % 1012,8 hPa 0,0 l/m 0 min 0 min 0,0 UV-I 5 W/m 5,1 km/h (1 Bft)
29.10.2013 17:02 10,6 C 8,3 C 88 % 1012,8 hPa 0,0 l/m 0 min 0 min 0,0 UV-I 5 W/m 7,7 km/h (2 Bft)
29.10.2013 17:06 10,7 C 8,3 C 87 % 1012,9 hPa 0,0 l/m 0 min 2 min 0,0 UV-I 5 W/m 2,6 km/h (1 Bft)
29.10.2013 17:08 10,8 C 8,3 C 86 % 1012,9 hPa 0,0 l/m 0 min 2 min 0,0 UV-I 5 W/m 10,3 km/h (2 Bft)
29.10.2013 17:10 10,8 C 8,3 C 86 % 1012,8 hPa 0,0 l/m 0 min 0 min 0,0 UV-I 5 W/m 5,1 km/h (1 Bft)
29.10.2013 17:12 10,8 C 8,3 C 85 % 1012,8 hPa 0,0 l/m 0 min 0 min 0,0 UV-I 5 W/m 15,4 km/h (3 Bft)
29.10.2013 17:14 10,8 C 8,3 C 84 % 1012,9 hPa 0,0 l/m 0 min 0 min 0,0 UV-I 0 W/m 0,0 km/h (0 Bft)
29.10.2013 17:16 10,8 C 8,3 C 84 % 1012,9 hPa 0,0 l/m 0 min 0 min 0,0 UV-I 0 W/m 10,3 km/h (2 Bft)
29.10.2013 17:18 10,8 C 8,3 C 83 % 1012,9 hPa 0,0 l/m 0 min 0 min 0,0 UV-I 0 W/m 10,3 km/h (2 Bft)
29.10.2013 17:20 10,9 C 7,8 C 83 % 1012,9 hPa 0,0 l/m 0 min 0 min 0,0 UV-I 0 W/m 10,3 km/h (2 Bft)
29.10.2013 17:22 10,9 C 7,8 C 83 % 1012,8 hPa 0,0 l/m 0 min 0 min 0,0 UV-I 0 W/m 2,6 km/h (1 Bft)
29.10.2013 17:24 10,9 C 7,8 C 82 % 1012,9 hPa 0,0 l/m 0 min 0 min 0,0 UV-I 0 W/m 10,3 km/h (2 Bft)
29.10.2013 17:26 10,9 C 8,3 C 82 % 1012,9 hPa 0,0 l/m 0 min 0 min 0,0 UV-I 0 W/m 5,1 km/h (1 Bft)
29.10.2013 17:28 10,9 C 8,3 C 82 % 1013,0 hPa 0,0 l/m 0 min 0 min 0,0 UV-I 0 W/m 10,3 km/h (2 Bft)
29.10.2013 17:30 10,9 C 8,3 C 82 % 1012,9 hPa 0,0 l/m 0 min 0 min 0,0 UV-I 0 W/m 15,4 km/h (3 Bft)
29.10.2013 17:32 10,9 C 8,3 C 81 % 1012,9 hPa 0,0 l/m 0 min 0 min 0,0 UV-I 0 W/m 20,6 km/h (4 Bft)
29.10.2013 17:34 11,0 C 8,3 C 81 % 1013,0 hPa 0,0 l/m 0 min 0 min 0,0 UV-I 0 W/m 20,6 km/h (4 Bft)
29.10.2013 17:36 11,1 C 8,3 C 81 % 1013,1 hPa 0,0 l/m 0 min 2 min 0,0 UV-I 0 W/m 12,9 km/h (3 Bft)
29.10.2013 17:38 11,1 C 8,3 C 81 % 1013,0 hPa 0,0 l/m 0 min 0 min 0,0 UV-I 0 W/m 12,9 km/h (3 Bft)
29.10.2013 17:40 11,0 C 8,3 C 81 % 1013,0 hPa 0,0 l/m 0 min 2 min 0,0 UV-I 0 W/m 25,7 km/h (4 Bft)
29.10.2013 17:42 10,9 C 8,3 C 82 % 1013,0 hPa 0,0 l/m 0 min 0 min 0,0 UV-I 0 W/m 12,9 km/h (3 Bft)
29.10.2013 17:44 10,9 C 8,3 C 82 % 1013,1 hPa 0,0 l/m 0 min 0 min 0,0 UV-I 0 W/m 10,3 km/h (2 Bft)
29.10.2013 17:46 10,8 C 8,3 C 82 % 1013,1 hPa 0,0 l/m 0 min 0 min 0,0 UV-I 0 W/m 2,6 km/h (1 Bft)
29.10.2013 17:48 10,8 C 8,3 C 82 % 1013,2 hPa 0,0 l/m 0 min 0 min 0,0 UV-I 0 W/m 2,6 km/h (1 Bft)
29.10.2013 17:50 10,7 C 8,3 C 82 % 1013,2 hPa 0,0 l/m 0 min 0 min 0,0 UV-I 0 W/m 7,7 km/h (2 Bft)
29.10.2013 17:52 10,7 C 8,3 C 83 % 1013,2 hPa 0,0 l/m 0 min 0 min 0,0 UV-I 0 W/m 10,3 km/h (2 Bft)
29.10.2013 17:54 10,7 C 8,3 C 83 % 1013,2 hPa 0,0 l/m 0 min 0 min 0,0 UV-I 0 W/m 10,3 km/h (2 Bft)
29.10.2013 17:56 10,7 C 8,3 C 83 % 1013,2 hPa 0,0 l/m 0 min 0 min 0,0 UV-I 0 W/m 12,9 km/h (3 Bft)
29.10.2013 17:58 10,7 C 8,3 C 84 % 1013,3 hPa 0,0 l/m 0 min 2 min 0,0 UV-I 0 W/m 20,6 km/h (4 Bft)
29.10.2013 18:00 10,7 C 8,3 C 84 % 1013,2 hPa 0,0 l/m 0 min 2 min 0,0 UV-I 0 W/m 7,7 km/h (2 Bft)
29.10.2013 18:02 10,6 C 8,3 C 84 % 1013,2 hPa 0,0 l/m 0 min 2 min 0,0 UV-I 0 W/m 7,7 km/h (2 Bft)
29.10.2013 18:06 10,5 C 8,3 C 85 % 1013,3 hPa 0,0 l/m 0 min 2 min 0,0 UV-I 0 W/m 15,4 km/h (3 Bft)
29.10.2013 18:08 10,4 C 8,3 C 85 % 1013,5 hPa 0,0 l/m 0 min 0 min 0,0 UV-I 0 W/m 15,4 km/h (3 Bft)
29.10.2013 18:10 10,3 C 8,3 C 85 % 1013,5 hPa 0,0 l/m 0 min 0 min 0,0 UV-I 0 W/m 10,3 km/h (2 Bft)
29.10.2013 18:12 10,3 C 7,8 C 85 % 1013,5 hPa 0,0 l/m 0 min 0 min 0,0 UV-I 0 W/m 15,4 km/h (3 Bft)
29.10.2013 18:14 10,2 C 7,8 C 86 % 1013,5 hPa 0,0 l/m 0 min 0 min 0,0 UV-I 0 W/m 7,7 km/h (2 Bft)
29.10.2013 18:16 10,1 C 7,8 C 86 % 1013,5 hPa 0,0 l/m 0 min 0 min 0,0 UV-I 0 W/m 10,3 km/h (2 Bft)
29.10.2013 18:18 10,0 C 7,8 C 86 % 1013,5 hPa 0,0 l/m 0 min 0 min 0,0 UV-I 0 W/m 7,7 km/h (2 Bft)
29.10.2013 18:20 9,9 C 7,8 C 86 % 1013,5 hPa 0,0 l/m 0 min 0 min 0,0 UV-I 0 W/m 18,0 km/h (3 Bft)
29.10.2013 18:22 9,9 C 7,8 C 86 % 1013,4 hPa 0,0 l/m 0 min 0 min 0,0 UV-I 0 W/m 15,4 km/h (3 Bft)
29.10.2013 18:24 9,8 C 7,8 C 86 % 1013,4 hPa 0,0 l/m 0 min 0 min 0,0 UV-I 0 W/m 18,0 km/h (3 Bft)
29.10.2013 18:26 9,8 C 7,8 C 86 % 1013,5 hPa 0,0 l/m 0 min 0 min 0,0 UV-I 0 W/m 10,3 km/h (2 Bft)
29.10.2013 18:28 9,7 C 7,8 C 87 % 1013,5 hPa 0,0 l/m 0 min 0 min 0,0 UV-I 0 W/m 0,0 km/h (0 Bft)
29.10.2013 18:30 9,6 C 7,8 C 87 % 1013,6 hPa 0,0 l/m 0 min 0 min 0,0 UV-I 0 W/m 10,3 km/h (2 Bft)
29.10.2013 18:32 9,6 C 7,8 C 87 % 1013,6 hPa 0,0 l/m 0 min 0 min 0,0 UV-I 0 W/m 15,4 km/h (3 Bft)
29.10.2013 18:34 9,5 C 7,8 C 87 % 1013,6 hPa 0,0 l/m 0 min 0 min 0,0 UV-I 0 W/m 12,9 km/h (3 Bft)
29.10.2013 18:36 9,4 C 7,8 C 87 % 1013,6 hPa 0,0 l/m 0 min 0 min 0,0 UV-I 0 W/m 12,9 km/h (3 Bft)
29.10.2013 18:38 9,4 C 7,8 C 87 % 1013,6 hPa 0,0 l/m 0 min 0 min 0,0 UV-I 0 W/m 2,6 km/h (1 Bft)
29.10.2013 18:40 9,4 C 7,8 C 87 % 1013,6 hPa 0,0 l/m 0 min 0 min 0,0 UV-I 0 W/m 2,6 km/h (1 Bft)
29.10.2013 18:42 9,3 C 7,2 C 87 % 1013,6 hPa 0,0 l/m 0 min 0 min 0,0 UV-I 0 W/m 7,7 km/h (2 Bft)
29.10.2013 18:44 9,3 C 7,2 C 87 % 1013,6 hPa 0,0 l/m 0 min 0 min 0,0 UV-I 0 W/m 7,7 km/h (2 Bft)
29.10.2013 18:46 9,2 C 7,2 C 87 % 1013,5 hPa 0,0 l/m 0 min 0 min 0,0 UV-I 0 W/m 12,9 km/h (3 Bft)
29.10.2013 18:48 9,2 C 7,2 C 87 % 1013,6 hPa 0,0 l/m 0 min 0 min 0,0 UV-I 0 W/m 12,9 km/h (3 Bft)
29.10.2013 18:50 9,2 C 7,2 C 87 % 1013,6 hPa 0,0 l/m 0 min 0 min 0,0 UV-I 0 W/m 7,7 km/h (2 Bft)
29.10.2013 18:52 9,1 C 7,2 C 88 % 1013,6 hPa 0,0 l/m 0 min 0 min 0,0 UV-I 0 W/m 7,7 km/h (2 Bft)
29.10.2013 18:54 9,1 C 7,2 C 88 % 1013,7 hPa 0,0 l/m 0 min 0 min 0,0 UV-I 0 W/m 15,4 km/h (3 Bft)
29.10.2013 18:56 9,0 C 7,2 C 88 % 1013,7 hPa 0,0 l/m 0 min 0 min 0,0 UV-I 0 W/m 15,4 km/h (3 Bft)
29.10.2013 18:58 9,0 C 7,2 C 88 % 1013,7 hPa 0,0 l/m 0 min 0 min 0,0 UV-I 0 W/m 23,2 km/h (4 Bft)
29.10.2013 19:00 8,9 C 7,2 C 88 % 1013,7 hPa 0,0 l/m 0 min 0 min 0,0 UV-I 0 W/m 23,2 km/h (4 Bft)
29.10.2013 19:02 8,9 C 7,2 C 88 % 1013,6 hPa 0,0 l/m 0 min 0 min 0,0 UV-I 0 W/m 15,4 km/h (3 Bft)
29.10.2013 19:06 8,8 C 7,2 C 88 % 1013,7 hPa 0,0 l/m 0 min 0 min 0,0 UV-I 0 W/m 18,0 km/h (3 Bft)
29.10.2013 19:08 8,8 C 7,2 C 88 % 1013,8 hPa 0,0 l/m 0 min 0 min 0,0 UV-I 0 W/m 5,1 km/h (1 Bft)
29.10.2013 19:10 8,8 C 7,2 C 88 % 1013,9 hPa 0,0 l/m 0 min 0 min 0,0 UV-I 0 W/m 15,4 km/h (3 Bft)
29.10.2013 19:12 8,8 C 7,2 C 88 % 1013,9 hPa 0,0 l/m 0 min 0 min 0,0 UV-I 0 W/m 10,3 km/h (2 Bft)
29.10.2013 19:14 8,7 C 7,2 C 88 % 1013,9 hPa 0,0 l/m 0 min 0 min 0,0 UV-I 0 W/m 12,9 km/h (3 Bft)
29.10.2013 19:16 8,7 C 7,2 C 88 % 1014,0 hPa 0,0 l/m 0 min 0 min 0,0 UV-I 0 W/m 7,7 km/h (2 Bft)
29.10.2013 19:18 8,7 C 7,2 C 89 % 1014,0 hPa 0,0 l/m 0 min 0 min 0,0 UV-I 0 W/m 10,3 km/h (2 Bft)
29.10.2013 19:20 8,7 C 7,2 C 89 % 1014,0 hPa 0,0 l/m 0 min 0 min 0,0 UV-I 0 W/m 2,6 km/h (1 Bft)
29.10.2013 19:22 8,7 C 7,2 C 89 % 1014,0 hPa 0,0 l/m 0 min 0 min 0,0 UV-I 0 W/m 2,6 km/h (1 Bft)
29.10.2013 19:24 8,6 C 7,2 C 89 % 1014,0 hPa 0,0 l/m 0 min 0 min 0,0 UV-I 0 W/m 2,6 km/h (1 Bft)
29.10.2013 19:26 8,6 C 7,2 C 89 % 1014,0 hPa 0,0 l/m 0 min 0 min 0,0 UV-I 0 W/m 5,1 km/h (1 Bft)
29.10.2013 19:28 8,6 C 7,2 C 89 % 1014,1 hPa 0,0 l/m 0 min 0 min 0,0 UV-I 0 W/m 5,1 km/h (1 Bft)
29.10.2013 19:30 8,6 C 7,2 C 89 % 1014,1 hPa 0,0 l/m 0 min 0 min 0,0 UV-I 0 W/m 15,4 km/h (3 Bft)
29.10.2013 19:32 8,6 C 7,2 C 89 % 1014,2 hPa 0,0 l/m 0 min 0 min 0,0 UV-I 0 W/m 15,4 km/h (3 Bft)
29.10.2013 19:34 8,6 C 7,2 C 89 % 1014,1 hPa 0,0 l/m 0 min 0 min 0,0 UV-I 0 W/m 12,9 km/h (3 Bft)
29.10.2013 19:36 8,6 C 7,2 C 89 % 1014,1 hPa 0,0 l/m 0 min 0 min 0,0 UV-I 0 W/m 7,7 km/h (2 Bft)
29.10.2013 19:38 8,6 C 7,2 C 89 % 1014,1 hPa 0,0 l/m 0 min 0 min 0,0 UV-I 0 W/m 7,7 km/h (2 Bft)
29.10.2013 19:40 8,6 C 7,2 C 89 % 1014,2 hPa 0,0 l/m 0 min 0 min 0,0 UV-I 0 W/m 2,6 km/h (1 Bft)
29.10.2013 19:42 8,5 C 7,2 C 89 % 1014,2 hPa 0,0 l/m 0 min 0 min 0,0 UV-I 0 W/m 10,3 km/h (2 Bft)
29.10.2013 19:44 8,5 C 7,2 C 89 % 1014,2 hPa 0,0 l/m 0 min 0 min 0,0 UV-I 0 W/m 2,6 km/h (1 Bft)
29.10.2013 19:46 8,5 C 7,2 C 89 % 1014,2 hPa 0,0 l/m 0 min 0 min 0,0 UV-I 0 W/m 7,7 km/h (2 Bft)
29.10.2013 19:48 8,5 C 7,2 C 89 % 1014,3 hPa 0,0 l/m 0 min 0 min 0,0 UV-I 0 W/m 7,7 km/h (2 Bft)
29.10.2013 19:50 8,5 C 7,2 C 89 % 1014,3 hPa 0,0 l/m 0 min 0 min 0,0 UV-I 0 W/m 7,7 km/h (2 Bft)
29.10.2013 19:52 8,5 C 7,2 C 89 % 1014,2 hPa 0,0 l/m 0 min 0 min 0,0 UV-I 0 W/m 0,0 km/h (0 Bft)
29.10.2013 19:54 8,5 C 7,2 C 89 % 1014,2 hPa 0,0 l/m 0 min 0 min 0,0 UV-I 0 W/m 5,1 km/h (1 Bft)
29.10.2013 19:56 8,5 C 7,2 C 89 % 1014,3 hPa 0,0 l/m 0 min 0 min 0,0 UV-I 0 W/m 2,6 km/h (1 Bft)
29.10.2013 19:58 8,4 C 7,2 C 89 % 1014,2 hPa 0,0 l/m 0 min 0 min 0,0 UV-I 0 W/m 0,0 km/h (0 Bft)
29.10.2013 20:00 8,4 C 7,2 C 90 % 1014,3 hPa 0,0 l/m 0 min 0 min 0,0 UV-I 0 W/m 5,1 km/h (1 Bft)
29.10.2013 20:02 8,4 C 7,2 C 90 % 1014,3 hPa 0,0 l/m 0 min 0 min 0,0 UV-I 0 W/m 0,0 km/h (0 Bft)
29.10.2013 20:06 8,4 C 6,7 C 90 % 1014,4 hPa 0,0 l/m 0 min 0 min 0,0 UV-I 0 W/m 2,6 km/h (1 Bft)
29.10.2013 20:08 8,3 C 6,7 C 90 % 1014,4 hPa 0,0 l/m 0 min 0 min 0,0 UV-I 0 W/m 12,9 km/h (3 Bft)
29.10.2013 20:10 8,3 C 7,2 C 90 % 1014,5 hPa 0,0 l/m 0 min 0 min 0,0 UV-I 0 W/m 12,9 km/h (3 Bft)
29.10.2013 20:12 8,4 C 7,2 C 90 % 1014,6 hPa 0,0 l/m 0 min 0 min 0,0 UV-I 0 W/m 12,9 km/h (3 Bft)
29.10.2013 20:14 8,4 C 7,2 C 90 % 1014,6 hPa 0,0 l/m 0 min 0 min 0,0 UV-I 0 W/m 2,6 km/h (1 Bft)
29.10.2013 20:16 8,3 C 7,2 C 90 % 1014,6 hPa 0,0 l/m 0 min 0 min 0,0 UV-I 0 W/m 5,1 km/h (1 Bft)
29.10.2013 20:18 8,4 C 7,2 C 90 % 1014,6 hPa 0,0 l/m 0 min 0 min 0,0 UV-I 0 W/m 7,7 km/h (2 Bft)
29.10.2013 20:20 8,4 C 7,2 C 90 % 1014,7 hPa 0,0 l/m 0 min 0 min 0,0 UV-I 0 W/m 2,6 km/h (1 Bft)
29.10.2013 20:22 8,4 C 7,2 C 90 % 1014,7 hPa 0,0 l/m 0 min 0 min 0,0 UV-I 0 W/m 7,7 km/h (2 Bft)
29.10.2013 20:24 8,4 C 7,2 C 90 % 1014,7 hPa 0,0 l/m 0 min 0 min 0,0 UV-I 0 W/m 5,1 km/h (1 Bft)
29.10.2013 20:26 8,4 C 7,2 C 90 % 1014,8 hPa 0,0 l/m 0 min 0 min 0,0 UV-I 0 W/m 7,7 km/h (2 Bft)
29.10.2013 20:28 8,4 C 7,2 C 90 % 1014,8 hPa 0,0 l/m 0 min 0 min 0,0 UV-I 0 W/m 5,1 km/h (1 Bft)
29.10.2013 20:30 8,4 C 7,2 C 90 % 1014,8 hPa 0,0 l/m 0 min 0 min 0,0 UV-I 0 W/m 0,0 km/h (0 Bft)
29.10.2013 20:32 8,4 C 7,2 C 90 % 1014,9 hPa 0,0 l/m 0 min 0 min 0,0 UV-I 0 W/m 5,1 km/h (1 Bft)
29.10.2013 20:34 8,4 C 7,2 C 90 % 1014,9 hPa 0,0 l/m 0 min 0 min 0,0 UV-I 0 W/m 2,6 km/h (1 Bft)
29.10.2013 20:36 8,5 C 7,2 C 90 % 1014,9 hPa 0,0 l/m 0 min 0 min 0,0 UV-I 0 W/m 0,0 km/h (0 Bft)
29.10.2013 20:38 8,5 C 7,2 C 90 % 1014,9 hPa 0,0 l/m 0 min 0 min 0,0 UV-I 0 W/m 15,4 km/h (3 Bft)
29.10.2013 20:40 8,6 C 7,2 C 90 % 1014,9 hPa 0,0 l/m 0 min 0 min 0,0 UV-I 0 W/m 12,9 km/h (3 Bft)
29.10.2013 20:42 8,6 C 7,2 C 90 % 1014,9 hPa 0,0 l/m 0 min 0 min 0,0 UV-I 0 W/m 7,7 km/h (2 Bft)
29.10.2013 20:44 8,6 C 7,8 C 90 % 1014,9 hPa 0,0 l/m 0 min 0 min 0,0 UV-I 0 W/m 7,7 km/h (2 Bft)
29.10.2013 20:46 8,7 C 7,8 C 90 % 1014,9 hPa 0,0 l/m 0 min 0 min 0,0 UV-I 0 W/m 15,4 km/h (3 Bft)
29.10.2013 20:48 8,7 C 7,8 C 90 % 1015,0 hPa 0,0 l/m 0 min 0 min 0,0 UV-I 0 W/m 20,6 km/h (4 Bft)
29.10.2013 20:50 8,7 C 7,2 C 90 % 1015,0 hPa 0,0 l/m 0 min 0 min 0,0 UV-I 0 W/m 7,7 km/h (2 Bft)
29.10.2013 20:52 8,7 C 7,2 C 90 % 1015,1 hPa 0,0 l/m 0 min 0 min 0,0 UV-I 0 W/m 18,0 km/h (3 Bft)
29.10.2013 20:54 8,7 C 7,2 C 89 % 1015,1 hPa 0,0 l/m 0 min 0 min 0,0 UV-I 0 W/m 7,7 km/h (2 Bft)
29.10.2013 20:56 8,7 C 7,2 C 89 % 1015,0 hPa 0,0 l/m 0 min 0 min 0,0 UV-I 0 W/m 5,1 km/h (1 Bft)
29.10.2013 20:58 8,7 C 7,2 C 89 % 1015,1 hPa 0,0 l/m 0 min 0 min 0,0 UV-I 0 W/m 7,7 km/h (2 Bft)
29.10.2013 21:00 8,7 C 7,2 C 89 % 1015,0 hPa 0,0 l/m 0 min 0 min 0,0 UV-I 0 W/m 15,4 km/h (3 Bft)
29.10.2013 21:02 8,6 C 7,2 C 89 % 1015,1 hPa 0,0 l/m 0 min 0 min 0,0 UV-I 0 W/m 7,7 km/h (2 Bft)
29.10.2013 21:06 8,6 C 7,2 C 89 % 1015,2 hPa 0,0 l/m 0 min 0 min 0,0 UV-I 0 W/m 7,7 km/h (2 Bft)
29.10.2013 21:08 8,6 C 7,2 C 89 % 1015,2 hPa 0,0 l/m 0 min 0 min 0,0 UV-I 0 W/m 12,9 km/h (3 Bft)
29.10.2013 21:10 8,6 C 7,2 C 89 % 1015,2 hPa 0,0 l/m 0 min 0 min 0,0 UV-I 0 W/m 0,0 km/h (0 Bft)
29.10.2013 21:12 8,6 C 7,2 C 89 % 1015,1 hPa 0,0 l/m 0 min 0 min 0,0 UV-I 0 W/m 10,3 km/h (2 Bft)
29.10.2013 21:14 8,5 C 7,2 C 90 % 1015,2 hPa 0,0 l/m 0 min 0 min 0,0 UV-I 0 W/m 10,3 km/h (2 Bft)
29.10.2013 21:16 8,5 C 7,2 C 89 % 1015,2 hPa 0,0 l/m 0 min 0 min 0,0 UV-I 0 W/m 7,7 km/h (2 Bft)
29.10.2013 21:18 8,5 C 7,2 C 89 % 1015,3 hPa 0,0 l/m 0 min 0 min 0,0 UV-I 0 W/m 10,3 km/h (2 Bft)
29.10.2013 21:20 8,4 C 7,2 C 89 % 1015,3 hPa 0,0 l/m 0 min 0 min 0,0 UV-I 0 W/m 2,6 km/h (1 Bft)
29.10.2013 21:22 8,4 C 7,2 C 89 % 1015,3 hPa 0,0 l/m 0 min 0 min 0,0 UV-I 0 W/m 5,1 km/h (1 Bft)
29.10.2013 21:24 8,4 C 7,2 C 89 % 1015,4 hPa 0,0 l/m 0 min 0 min 0,0 UV-I 0 W/m 15,4 km/h (3 Bft)
29.10.2013 21:26 8,4 C 7,2 C 89 % 1015,4 hPa 0,0 l/m 0 min 0 min 0,0 UV-I 0 W/m 12,9 km/h (3 Bft)
29.10.2013 21:28 8,4 C 7,2 C 90 % 1015,3 hPa 0,0 l/m 0 min 0 min 0,0 UV-I 0 W/m 12,9 km/h (3 Bft)
29.10.2013 21:30 8,4 C 7,2 C 90 % 1015,4 hPa 0,0 l/m 0 min 0 min 0,0 UV-I 0 W/m 0,0 km/h (0 Bft)
29.10.2013 21:32 8,3 C 7,2 C 90 % 1015,4 hPa 0,0 l/m 0 min 0 min 0,0 UV-I 0 W/m 5,1 km/h (1 Bft)
29.10.2013 21:34 8,3 C 7,2 C 90 % 1015,4 hPa 0,0 l/m 0 min 0 min 0,0 UV-I 0 W/m 12,9 km/h (3 Bft)
29.10.2013 21:36 8,3 C 7,2 C 90 % 1015,5 hPa 0,0 l/m 0 min 0 min 0,0 UV-I 0 W/m 10,3 km/h (2 Bft)
29.10.2013 21:38 8,3 C 7,2 C 90 % 1015,5 hPa 0,0 l/m 0 min 0 min 0,0 UV-I 0 W/m 5,1 km/h (1 Bft)
29.10.2013 21:40 8,3 C 7,2 C 90 % 1015,5 hPa 0,0 l/m 0 min 0 min 0,0 UV-I 0 W/m 12,9 km/h (3 Bft)
29.10.2013 21:42 8,3 C 7,2 C 90 % 1015,6 hPa 0,0 l/m 0 min 0 min 0,0 UV-I 0 W/m 15,4 km/h (3 Bft)
29.10.2013 21:44 8,3 C 7,2 C 90 % 1015,6 hPa 0,0 l/m 0 min 0 min 0,0 UV-I 0 W/m 2,6 km/h (1 Bft)
29.10.2013 21:46 8,3 C 7,2 C 90 % 1015,6 hPa 0,0 l/m 0 min 0 min 0,0 UV-I 0 W/m 7,7 km/h (2 Bft)
29.10.2013 21:48 8,3 C 7,2 C 90 % 1015,7 hPa 0,0 l/m 0 min 0 min 0,0 UV-I 0 W/m 0,0 km/h (0 Bft)
29.10.2013 21:50 8,3 C 7,2 C 90 % 1015,6 hPa 0,0 l/m 0 min 0 min 0,0 UV-I 0 W/m 0,0 km/h (0 Bft)
29.10.2013 21:52 8,3 C 7,2 C 90 % 1015,7 hPa 0,0 l/m 0 min 0 min 0,0 UV-I 0 W/m 10,3 km/h (2 Bft)
29.10.2013 21:54 8,4 C 7,2 C 90 % 1015,7 hPa 0,0 l/m 0 min 0 min 0,0 UV-I 0 W/m 7,7 km/h (2 Bft)
29.10.2013 21:56 8,4 C 7,2 C 90 % 1015,7 hPa 0,0 l/m 0 min 0 min 0,0 UV-I 0 W/m 5,1 km/h (1 Bft)
29.10.2013 21:58 8,4 C 7,2 C 90 % 1015,8 hPa 0,0 l/m 0 min 0 min 0,0 UV-I 0 W/m 7,7 km/h (2 Bft)
29.10.2013 22:00 8,4 C 7,2 C 90 % 1015,8 hPa 0,0 l/m 0 min 0 min 0,0 UV-I 0 W/m 0,0 km/h (0 Bft)
29.10.2013 22:02 8,5 C 7,2 C 90 % 1015,8 hPa 0,0 l/m 0 min 0 min 0,0 UV-I 0 W/m 12,9 km/h (3 Bft)
29.10.2013 22:06 8,6 C 7,8 C 90 % 1015,9 hPa 0,0 l/m 0 min 0 min 0,0 UV-I 0 W/m 15,4 km/h (3 Bft)
29.10.2013 22:08 8,6 C 7,8 C 90 % 1015,8 hPa 0,0 l/m 0 min 0 min 0,0 UV-I 0 W/m 5,1 km/h (1 Bft)
29.10.2013 22:10 8,6 C 7,8 C 90 % 1015,9 hPa 0,0 l/m 0 min 0 min 0,0 UV-I 0 W/m 7,7 km/h (2 Bft)
29.10.2013 22:12 8,6 C 7,8 C 90 % 1015,9 hPa 0,0 l/m 0 min 0 min 0,0 UV-I 0 W/m 7,7 km/h (2 Bft)
29.10.2013 22:14 8,7 C 7,8 C 89 % 1015,9 hPa 0,0 l/m 0 min 0 min 0,0 UV-I 0 W/m 2,6 km/h (1 Bft)
29.10.2013 22:16 8,7 C 7,8 C 89 % 1015,8 hPa 0,0 l/m 0 min 0 min 0,0 UV-I 0 W/m 10,3 km/h (2 Bft)
29.10.2013 22:18 8,7 C 7,8 C 89 % 1015,9 hPa 0,0 l/m 0 min 0 min 0,0 UV-I 0 W/m 7,7 km/h (2 Bft)
29.10.2013 22:20 8,7 C 7,8 C 89 % 1015,8 hPa 0,0 l/m 0 min 0 min 0,0 UV-I 0 W/m 7,7 km/h (2 Bft)
29.10.2013 22:22 8,7 C 7,8 C 89 % 1015,8 hPa 0,0 l/m 0 min 0 min 0,0 UV-I 0 W/m 7,7 km/h (2 Bft)
29.10.2013 22:24 8,7 C 7,8 C 89 % 1015,9 hPa 0,0 l/m 0 min 0 min 0,0 UV-I 0 W/m 7,7 km/h (2 Bft)
29.10.2013 22:26 8,7 C 7,8 C 89 % 1015,9 hPa 0,0 l/m 0 min 0 min 0,0 UV-I 0 W/m 10,3 km/h (2 Bft)
29.10.2013 22:28 8,7 C 7,8 C 89 % 1015,9 hPa 0,0 l/m 0 min 0 min 0,0 UV-I 0 W/m 10,3 km/h (2 Bft)
29.10.2013 22:30 8,7 C 7,8 C 89 % 1015,9 hPa 0,0 l/m 0 min 0 min 0,0 UV-I 0 W/m 0,0 km/h (0 Bft)
29.10.2013 22:32 8,7 C 7,8 C 89 % 1015,9 hPa 0,0 l/m 0 min 0 min 0,0 UV-I 0 W/m 5,1 km/h (1 Bft)
29.10.2013 22:34 8,7 C 7,8 C 89 % 1016,0 hPa 0,0 l/m 0 min 0 min 0,0 UV-I 0 W/m 0,0 km/h (0 Bft)
29.10.2013 22:36 8,7 C 7,8 C 89 % 1016,0 hPa 0,0 l/m 0 min 0 min 0,0 UV-I 0 W/m 0,0 km/h (0 Bft)
29.10.2013 22:38 8,6 C 7,2 C 89 % 1016,0 hPa 0,0 l/m 0 min 0 min 0,0 UV-I 0 W/m 12,9 km/h (3 Bft)
29.10.2013 22:40 8,6 C 7,2 C 89 % 1016,0 hPa 0,0 l/m 0 min 0 min 0,0 UV-I 0 W/m 2,6 km/h (1 Bft)
29.10.2013 22:42 8,5 C 7,2 C 89 % 1016,1 hPa 0,0 l/m 0 min 0 min 0,0 UV-I 0 W/m 12,9 km/h (3 Bft)
29.10.2013 22:44 8,4 C 7,2 C 89 % 1016,2 hPa 0,0 l/m 0 min 0 min 0,0 UV-I 0 W/m 7,7 km/h (2 Bft)
29.10.2013 22:46 8,4 C 7,2 C 89 % 1016,2 hPa 0,0 l/m 0 min 0 min 0,0 UV-I 0 W/m 2,6 km/h (1 Bft)
29.10.2013 22:48 8,4 C 7,2 C 89 % 1016,3 hPa 0,0 l/m 0 min 0 min 0,0 UV-I 0 W/m 0,0 km/h (0 Bft)
29.10.2013 22:50 8,3 C 7,2 C 90 % 1016,3 hPa 0,0 l/m 0 min 0 min 0,0 UV-I 0 W/m 7,7 km/h (2 Bft)
29.10.2013 22:52 8,3 C 7,2 C 90 % 1016,3 hPa 0,0 l/m 0 min 0 min 0,0 UV-I 0 W/m 5,1 km/h (1 Bft)
29.10.2013 22:54 8,3 C 7,2 C 90 % 1016,3 hPa 0,0 l/m 0 min 0 min 0,0 UV-I 0 W/m 7,7 km/h (2 Bft)
29.10.2013 22:56 8,3 C 7,2 C 90 % 1016,3 hPa 0,0 l/m 0 min 0 min 0,0 UV-I 0 W/m 15,4 km/h (3 Bft)
29.10.2013 22:58 8,3 C 7,2 C 90 % 1016,3 hPa 0,0 l/m 0 min 0 min 0,0 UV-I 0 W/m 2,6 km/h (1 Bft)
29.10.2013 23:00 8,3 C 7,2 C 90 % 1016,4 hPa 0,0 l/m 0 min 0 min 0,0 UV-I 0 W/m 7,7 km/h (2 Bft)
29.10.2013 23:02 8,4 C 7,2 C 90 % 1016,5 hPa 0,0 l/m 0 min 0 min 0,0 UV-I 0 W/m 7,7 km/h (2 Bft)
29.10.2013 23:06 8,4 C 7,2 C 90 % 1016,4 hPa 0,0 l/m 0 min 0 min 0,0 UV-I 0 W/m 10,3 km/h (2 Bft)
29.10.2013 23:08 8,4 C 7,2 C 90 % 1016,4 hPa 0,0 l/m 0 min 0 min 0,0 UV-I 0 W/m 7,7 km/h (2 Bft)
29.10.2013 23:10 8,4 C 7,2 C 90 % 1016,4 hPa 0,0 l/m 0 min 0 min 0,0 UV-I 0 W/m 12,9 km/h (3 Bft)
29.10.2013 23:12 8,4 C 7,2 C 90 % 1016,4 hPa 0,0 l/m 0 min 0 min 0,0 UV-I 0 W/m 7,7 km/h (2 Bft)
29.10.2013 23:14 8,3 C 7,2 C 90 % 1016,5 hPa 0,0 l/m 0 min 0 min 0,0 UV-I 0 W/m 2,6 km/h (1 Bft)
29.10.2013 23:16 8,3 C 7,2 C 90 % 1016,5 hPa 0,0 l/m 0 min 0 min 0,0 UV-I 0 W/m 7,7 km/h (2 Bft)
29.10.2013 23:18 8,3 C 7,2 C 90 % 1016,4 hPa 0,0 l/m 0 min 0 min 0,0 UV-I 0 W/m 10,3 km/h (2 Bft)
29.10.2013 23:20 8,3 C 7,2 C 90 % 1016,4 hPa 0,0 l/m 0 min 0 min 0,0 UV-I 0 W/m 12,9 km/h (3 Bft)
29.10.2013 23:22 8,2 C 6,7 C 90 % 1016,5 hPa 0,0 l/m 0 min 0 min 0,0 UV-I 0 W/m 0,0 km/h (0 Bft)
29.10.2013 23:24 8,2 C 6,7 C 90 % 1016,4 hPa 0,0 l/m 0 min 0 min 0,0 UV-I 0 W/m 0,0 km/h (0 Bft)
29.10.2013 23:26 8,1 C 6,7 C 91 % 1016,5 hPa 0,0 l/m 0 min 0 min 0,0 UV-I 0 W/m 2,6 km/h (1 Bft)
29.10.2013 23:28 8,1 C 6,7 C 91 % 1016,5 hPa 0,0 l/m 0 min 0 min 0,0 UV-I 0 W/m 10,3 km/h (2 Bft)
29.10.2013 23:30 8,1 C 6,7 C 91 % 1016,5 hPa 0,0 l/m 0 min 0 min 0,0 UV-I 0 W/m 5,1 km/h (1 Bft)
29.10.2013 23:32 8,1 C 6,7 C 91 % 1016,5 hPa 0,0 l/m 0 min 0 min 0,0 UV-I 0 W/m 0,0 km/h (0 Bft)
29.10.2013 23:34 8,0 C 6,7 C 91 % 1016,5 hPa 0,0 l/m 0 min 0 min 0,0 UV-I 0 W/m 0,0 km/h (0 Bft)
29.10.2013 23:36 8,0 C 6,7 C 91 % 1016,5 hPa 0,0 l/m 0 min 0 min 0,0 UV-I 0 W/m 7,7 km/h (2 Bft)
29.10.2013 23:38 8,0 C 6,7 C 91 % 1016,6 hPa 0,0 l/m 0 min 0 min 0,0 UV-I 0 W/m 12,9 km/h (3 Bft)
29.10.2013 23:40 7,9 C 6,7 C 91 % 1016,5 hPa 0,0 l/m 0 min 0 min 0,0 UV-I 0 W/m 2,6 km/h (1 Bft)
29.10.2013 23:42 7,9 C 6,7 C 91 % 1016,5 hPa 0,0 l/m 0 min 0 min 0,0 UV-I 0 W/m 5,1 km/h (1 Bft)
29.10.2013 23:44 7,9 C 6,7 C 91 % 1016,5 hPa 0,0 l/m 0 min 0 min 0,0 UV-I 0 W/m 0,0 km/h (0 Bft)
29.10.2013 23:46 7,9 C 6,7 C 91 % 1016,6 hPa 0,0 l/m 0 min 0 min 0,0 UV-I 0 W/m 0,0 km/h (0 Bft)
29.10.2013 23:48 7,9 C 6,7 C 91 % 1016,6 hPa 0,0 l/m 0 min 0 min 0,0 UV-I 0 W/m 2,6 km/h (1 Bft)
29.10.2013 23:50 7,9 C 6,7 C 92 % 1016,6 hPa 0,0 l/m 0 min 0 min 0,0 UV-I 0 W/m 0,0 km/h (0 Bft)
29.10.2013 23:52 7,9 C 6,7 C 92 % 1016,6 hPa 0,0 l/m 0 min 0 min 0,0 UV-I 0 W/m 0,0 km/h (0 Bft)
29.10.2013 23:54 7,8 C 6,7 C 92 % 1016,6 hPa 0,0 l/m 0 min 0 min 0,0 UV-I 0 W/m 2,6 km/h (1 Bft)
29.10.2013 23:56 7,8 C 6,7 C 92 % 1016,7 hPa 0,0 l/m 0 min 0 min 0,0 UV-I 0 W/m 0,0 km/h (0 Bft)
29.10.2013 23:58 7,8 C 6,7 C 92 % 1016,7 hPa 0,0 l/m 0 min 0 min 0,0 UV-I 0 W/m 2,6 km/h (1 Bft)
_ Min-Zeit 23:52 20:06 12:24 00:02 - - - - - 02:32
Minimum _ 7,8 C 6,7 C 71 % 1005,7 hPa - - - - - 0,0 km/h (0 Bft)
_ Max-Zeit 12:24 11:56 23:50 23:56 16:32 09:56 15:10 12:22 11:50 11:12
Maximum _ 13,6 C 12,8 C 92 % 1016,7 hPa 0,2 l/m 2 min 2 min 0,8 UV-I 506 W/m 43,8 km/h
S (6 Bft)
Durchschnitt _ 10,7 C 9,3 C 82 % 1010,8 hPa #0,4 l/m #2:06 h #1:12 h 0,6 UV-I 149 W/m 14,7 km/h (3 Bft)
© 2013 W. Hausmann